Wetterdaten: Montag, 11.12.2017
Datum Zeit Temp. Aussen Temp. o. S. +5cm Feuchte Auss BlattFeu 1 Luftdruck Regen Sonnenschein Regendauer Solar Windben Empfang
11.12.2017 00:00 3,3 C 3,3 C 1,7 C 91 % 0 lf 980,1 hPa 0,0 l/m 0 min 0 min 0 W/m 22,5 km/h (4 Bft) 97,87 %
11.12.2017 00:02 3,3 C 3,3 C 1,7 C 91 % 0 lf 980,2 hPa 0,0 l/m 0 min 0 min 0 W/m 22,5 km/h (4 Bft) 97,56 %
11.12.2017 00:04 3,3 C 3,3 C 1,7 C 91 % 0 lf 980,2 hPa 0,0 l/m 0 min 0 min 0 W/m 24,8 km/h (4 Bft) 95,74 %
11.12.2017 00:07 3,3 C 3,3 C 1,7 C 91 % 0 lf 980,3 hPa 0,0 l/m 0 min 0 min 0 W/m 27,0 km/h (4 Bft) 95,74 %
11.12.2017 00:09 3,3 C 3,3 C 1,7 C 92 % 0 lf 980,4 hPa 0,0 l/m 0 min 0 min 0 W/m 31,5 km/h (5 Bft) 95,76 %
11.12.2017 00:12 3,2 C 3,3 C 1,7 C 92 % 0 lf 980,4 hPa 0,0 l/m 0 min 0 min 0 W/m 24,8 km/h (4 Bft) 92,96 %
11.12.2017 00:14 3,2 C 3,3 C 1,7 C 92 % 0 lf 980,4 hPa 0,0 l/m 0 min 0 min 0 W/m 27,0 km/h (4 Bft) 97,87 %
11.12.2017 00:16 3,2 C 3,3 C 1,7 C 92 % 0 lf 980,4 hPa 0,0 l/m 0 min 0 min 0 W/m 22,5 km/h (4 Bft) 95,74 %
11.12.2017 00:18 3,2 C 3,3 C 1,7 C 92 % 0 lf 980,5 hPa 0,0 l/m 0 min 0 min 0 W/m 31,5 km/h (5 Bft) 95,74 %
11.12.2017 00:20 3,2 C 3,3 C 1,7 C 92 % 0 lf 980,7 hPa 0,0 l/m 0 min 0 min 0 W/m 24,8 km/h (4 Bft) 97,87 %
11.12.2017 00:22 3,2 C 3,3 C 1,7 C 92 % 0 lf 980,9 hPa 0,0 l/m 0 min 0 min 0 W/m 20,3 km/h (4 Bft) 95,74 %
11.12.2017 00:24 3,2 C 2,8 C 1,7 C 92 % 0 lf 980,9 hPa 0,0 l/m 0 min 0 min 0 W/m 29,3 km/h (5 Bft) 93,48 %
11.12.2017 00:26 3,2 C 2,8 C 1,7 C 92 % 0 lf 981,0 hPa 0,0 l/m 0 min 0 min 0 W/m 20,3 km/h (4 Bft) 97,87 %
11.12.2017 00:28 3,2 C 2,8 C 1,7 C 92 % 0 lf 981,0 hPa 0,0 l/m 0 min 0 min 0 W/m 31,5 km/h (5 Bft) 93,62 %
11.12.2017 00:30 3,1 C 2,8 C 1,7 C 92 % 0 lf 981,1 hPa 0,0 l/m 0 min 0 min 0 W/m 24,8 km/h (4 Bft) 97,87 %
11.12.2017 00:32 3,1 C 2,8 C 1,7 C 92 % 0 lf 981,1 hPa 0,0 l/m 0 min 0 min 0 W/m 31,5 km/h (5 Bft) 97,87 %
11.12.2017 00:34 3,1 C 2,8 C 1,7 C 92 % 0 lf 981,0 hPa 0,0 l/m 0 min 0 min 0 W/m 24,8 km/h (4 Bft) 97,87 %
11.12.2017 00:36 3,1 C 2,8 C 1,7 C 92 % 0 lf 981,1 hPa 0,0 l/m 0 min 0 min 0 W/m 18,0 km/h (3 Bft) 100,00 %
11.12.2017 00:38 3,1 C 2,8 C 1,7 C 92 % 0 lf 981,2 hPa 0,0 l/m 0 min 0 min 0 W/m 27,0 km/h (4 Bft) 100,00 %
11.12.2017 00:40 3,1 C 2,8 C 1,7 C 92 % 0 lf 981,1 hPa 0,0 l/m 0 min 0 min 0 W/m 27,0 km/h (4 Bft) 95,74 %
11.12.2017 00:42 3,1 C 2,8 C 1,7 C 92 % 0 lf 981,2 hPa 0,0 l/m 0 min 0 min 0 W/m 22,5 km/h (4 Bft) 97,87 %
11.12.2017 00:44 3,1 C 2,8 C 1,7 C 92 % 0 lf 981,3 hPa 0,0 l/m 0 min 0 min 0 W/m 22,5 km/h (4 Bft) 95,74 %
11.12.2017 00:46 3,1 C 2,8 C 1,7 C 93 % 0 lf 981,4 hPa 0,0 l/m 0 min 0 min 0 W/m 27,0 km/h (4 Bft) 95,74 %
11.12.2017 00:48 3,1 C 2,8 C 1,7 C 93 % 0 lf 981,4 hPa 0,0 l/m 0 min 0 min 0 W/m 18,0 km/h (3 Bft) 97,83 %
11.12.2017 00:50 3,1 C 2,8 C 1,7 C 93 % 0 lf 981,5 hPa 0,0 l/m 0 min 0 min 0 W/m 18,0 km/h (3 Bft) 97,87 %
11.12.2017 00:52 3,0 C 2,8 C 1,7 C 93 % 0 lf 981,5 hPa 0,0 l/m 0 min 0 min 0 W/m 20,3 km/h (4 Bft) 97,87 %
11.12.2017 00:54 3,0 C 2,8 C 1,7 C 93 % 0 lf 981,6 hPa 0,0 l/m 0 min 0 min 0 W/m 18,0 km/h (3 Bft) 95,74 %
11.12.2017 00:56 3,0 C 2,8 C 1,7 C 93 % 0 lf 981,8 hPa 0,0 l/m 0 min 0 min 0 W/m 24,8 km/h (4 Bft) 97,87 %
11.12.2017 00:58 3,0 C 2,8 C 1,7 C 93 % 0 lf 981,8 hPa 0,0 l/m 0 min 0 min 0 W/m 15,8 km/h (3 Bft) 95,74 %
11.12.2017 01:00 3,0 C 2,8 C 1,7 C 93 % 0 lf 982,0 hPa 0,0 l/m 0 min 0 min 0 W/m 22,5 km/h (4 Bft) 97,83 %
11.12.2017 01:02 3,0 C 2,8 C 1,7 C 93 % 0 lf 982,1 hPa 0,0 l/m 0 min 0 min 0 W/m 18,0 km/h (3 Bft) 95,74 %
11.12.2017 01:04 3,0 C 2,8 C 1,7 C 93 % 0 lf 982,2 hPa 0,0 l/m 0 min 0 min 0 W/m 18,0 km/h (3 Bft) 93,62 %
11.12.2017 01:06 3,0 C 2,8 C 1,7 C 93 % 0 lf 982,2 hPa 0,0 l/m 0 min 0 min 0 W/m 13,5 km/h (3 Bft) 93,62 %
11.12.2017 01:08 3,0 C 2,8 C 1,7 C 93 % 0 lf 982,2 hPa 0,0 l/m 0 min 0 min 0 W/m 18,0 km/h (3 Bft) 95,74 %
11.12.2017 01:10 2,9 C 2,8 C 1,7 C 93 % 0 lf 982,2 hPa 0,0 l/m 0 min 0 min 0 W/m 22,5 km/h (4 Bft) 95,65 %
11.12.2017 01:12 2,9 C 2,8 C 1,7 C 93 % 0 lf 982,3 hPa 0,0 l/m 0 min 0 min 0 W/m 15,8 km/h (3 Bft) 93,62 %
11.12.2017 01:14 2,9 C 2,8 C 1,7 C 93 % 0 lf 982,3 hPa 0,0 l/m 0 min 0 min 0 W/m 18,0 km/h (3 Bft) 91,49 %
11.12.2017 01:16 2,9 C 2,8 C 1,7 C 93 % 0 lf 982,3 hPa 0,0 l/m 0 min 0 min 0 W/m 29,3 km/h (5 Bft) 97,87 %
11.12.2017 01:18 2,9 C 2,8 C 1,1 C 93 % 0 lf 982,3 hPa 0,0 l/m 0 min 0 min 0 W/m 27,0 km/h (4 Bft) 95,74 %
11.12.2017 01:20 2,9 C 2,8 C 1,1 C 93 % 0 lf 982,5 hPa 0,0 l/m 0 min 0 min 0 W/m 22,5 km/h (4 Bft) 97,87 %
11.12.2017 01:22 2,9 C 2,8 C 1,1 C 93 % 0 lf 982,5 hPa 0,0 l/m 0 min 0 min 0 W/m 20,3 km/h (4 Bft) 95,65 %
11.12.2017 01:24 2,9 C 2,8 C 1,1 C 93 % 0 lf 982,5 hPa 0,0 l/m 0 min 0 min 0 W/m 13,5 km/h (3 Bft) 97,87 %
11.12.2017 01:26 2,9 C 2,8 C 1,1 C 93 % 0 lf 982,5 hPa 0,0 l/m 0 min 0 min 0 W/m 18,0 km/h (3 Bft) 97,87 %
11.12.2017 01:28 2,8 C 2,2 C 1,1 C 93 % 0 lf 982,5 hPa 0,0 l/m 0 min 0 min 0 W/m 15,8 km/h (3 Bft) 100,00 %
11.12.2017 01:30 2,8 C 2,2 C 0,6 C 93 % 0 lf 982,6 hPa 0,0 l/m 0 min 0 min 0 W/m 15,8 km/h (3 Bft) 100,00 %
11.12.2017 01:32 2,8 C 2,2 C 0,6 C 93 % 0 lf 982,7 hPa 0,0 l/m 0 min 0 min 0 W/m 15,8 km/h (3 Bft) 97,87 %
11.12.2017 01:34 2,8 C 2,2 C 1,1 C 93 % 0 lf 982,8 hPa 0,0 l/m 0 min 0 min 0 W/m 27,0 km/h (4 Bft) 100,00 %
11.12.2017 01:36 2,7 C 2,2 C 1,1 C 93 % 0 lf 982,8 hPa 0,0 l/m 0 min 0 min 0 W/m 22,5 km/h (4 Bft) 100,00 %
11.12.2017 01:38 2,7 C 2,2 C 1,1 C 93 % 0 lf 982,9 hPa 0,0 l/m 0 min 0 min 0 W/m 24,8 km/h (4 Bft) 93,62 %
11.12.2017 01:40 2,7 C 2,2 C 0,6 C 93 % 0 lf 982,9 hPa 0,0 l/m 0 min 0 min 0 W/m 13,5 km/h (3 Bft) 97,87 %
11.12.2017 01:42 2,7 C 2,2 C 0,6 C 93 % 0 lf 982,9 hPa 0,0 l/m 0 min 0 min 0 W/m 18,0 km/h (3 Bft) 95,74 %
11.12.2017 01:44 2,7 C 2,2 C 0,6 C 93 % 0 lf 982,9 hPa 0,0 l/m 0 min 0 min 0 W/m 15,8 km/h (3 Bft) 95,74 %
11.12.2017 01:46 2,7 C 2,2 C 0,6 C 93 % 0 lf 982,9 hPa 0,0 l/m 0 min 0 min 0 W/m 18,0 km/h (3 Bft) 93,48 %
11.12.2017 01:48 2,6 C 2,2 C 0,6 C 93 % 0 lf 982,9 hPa 0,0 l/m 0 min 0 min 0 W/m 13,5 km/h (3 Bft) 97,87 %
11.12.2017 01:50 2,6 C 2,2 C 0,6 C 93 % 0 lf 982,9 hPa 0,0 l/m 0 min 0 min 0 W/m 15,8 km/h (3 Bft) 97,87 %
11.12.2017 01:52 2,6 C 2,2 C 0,6 C 93 % 0 lf 982,9 hPa 0,0 l/m 0 min 0 min 0 W/m 11,3 km/h (2 Bft) 97,87 %
11.12.2017 01:54 2,6 C 2,2 C 0,6 C 93 % 0 lf 982,9 hPa 0,0 l/m 0 min 0 min 0 W/m 13,5 km/h (3 Bft) 91,49 %
11.12.2017 01:56 2,6 C 2,2 C 0,6 C 93 % 0 lf 982,9 hPa 0,0 l/m 0 min 0 min 0 W/m 9,0 km/h (2 Bft) 93,62 %
11.12.2017 01:58 2,6 C 2,2 C 0,6 C 93 % 0 lf 982,8 hPa 0,0 l/m 0 min 0 min 0 W/m 11,3 km/h (2 Bft) 95,65 %
11.12.2017 02:00 2,5 C 1,7 C 0,6 C 93 % 0 lf 982,8 hPa 0,0 l/m 0 min 0 min 0 W/m 4,5 km/h (1 Bft) 95,74 %
11.12.2017 02:02 2,5 C 1,7 C 0,0 C 93 % 0 lf 982,9 hPa 0,0 l/m 0 min 0 min 0 W/m 6,8 km/h (2 Bft) 95,74 %
11.12.2017 02:04 2,5 C 1,7 C 0,0 C 93 % 0 lf 982,9 hPa 0,0 l/m 0 min 0 min 0 W/m 2,3 km/h (1 Bft) 95,74 %
11.12.2017 02:06 2,5 C 1,7 C 0,0 C 93 % 0 lf 982,9 hPa 0,0 l/m 0 min 0 min 0 W/m 4,5 km/h (1 Bft) 93,62 %
11.12.2017 02:08 2,5 C 1,7 C 0,0 C 93 % 0 lf 983,1 hPa 0,0 l/m 0 min 0 min 0 W/m 4,5 km/h (1 Bft) 95,74 %
11.12.2017 02:10 2,4 C 1,7 C 0,0 C 93 % 0 lf 983,1 hPa 0,0 l/m 0 min 0 min 0 W/m 2,3 km/h (1 Bft) 93,48 %
11.12.2017 02:12 2,4 C 1,7 C 0,0 C 93 % 0 lf 983,2 hPa 0,0 l/m 0 min 0 min 0 W/m 2,3 km/h (1 Bft) 89,36 %
11.12.2017 02:14 2,4 C 1,7 C 0,0 C 93 % 0 lf 983,2 hPa 0,0 l/m 0 min 0 min 0 W/m 4,5 km/h (1 Bft) 95,74 %
11.12.2017 02:16 2,4 C 1,7 C 0,0 C 93 % 0 lf 983,1 hPa 0,0 l/m 0 min 0 min 0 W/m 0,0 km/h (0 Bft) 93,62 %
11.12.2017 02:18 2,4 C 1,7 C 0,0 C 93 % 0 lf 983,2 hPa 0,0 l/m 0 min 0 min 0 W/m 2,3 km/h (1 Bft) 93,62 %
11.12.2017 02:20 2,4 C 1,7 C 0,0 C 93 % 0 lf 983,1 hPa 0,0 l/m 0 min 0 min 0 W/m 2,3 km/h (1 Bft) 95,65 %
11.12.2017 02:22 2,4 C 1,7 C 0,0 C 93 % 0 lf 983,0 hPa 0,0 l/m 0 min 0 min 0 W/m 0,0 km/h (0 Bft) 97,87 %
11.12.2017 02:24 2,3 C 1,7 C 0,0 C 93 % 0 lf 983,1 hPa 0,0 l/m 0 min 0 min 0 W/m 0,0 km/h (0 Bft) 93,62 %
11.12.2017 02:26 2,3 C 1,7 C 0,0 C 93 % 0 lf 983,1 hPa 0,0 l/m 0 min 0 min 0 W/m 0,0 km/h (0 Bft) 97,87 %
11.12.2017 02:28 2,3 C 1,7 C -0,6 C 93 % 0 lf 983,1 hPa 0,0 l/m 0 min 0 min 0 W/m 0,0 km/h (0 Bft) 93,62 %
11.12.2017 02:30 2,3 C 1,7 C -0,6 C 93 % 0 lf 982,9 hPa 0,0 l/m 0 min 0 min 0 W/m 0,0 km/h (0 Bft) 100,00 %
11.12.2017 02:32 2,3 C 1,1 C -0,6 C 93 % 0 lf 982,9 hPa 0,0 l/m 0 min 0 min 0 W/m 0,0 km/h (0 Bft) 97,83 %
11.12.2017 02:34 2,2 C 1,1 C -0,6 C 93 % 1 lf 982,9 hPa 0,0 l/m 0 min 0 min 0 W/m 0,0 km/h (0 Bft) 97,87 %
11.12.2017 02:36 2,2 C 1,1 C -0,6 C 93 % 1 lf 982,9 hPa 0,0 l/m 0 min 0 min 0 W/m 0,0 km/h (0 Bft) 100,00 %
11.12.2017 02:38 2,2 C 0,6 C -1,1 C 93 % 1 lf 983,0 hPa 0,0 l/m 0 min 0 min 0 W/m 0,0 km/h (0 Bft) 97,87 %
11.12.2017 02:40 2,2 C 1,1 C -1,1 C 93 % 1 lf 983,0 hPa 0,0 l/m 0 min 0 min 0 W/m 0,0 km/h (0 Bft) 95,74 %
11.12.2017 02:42 2,2 C 1,1 C -1,1 C 93 % 1 lf 982,9 hPa 0,0 l/m 0 min 0 min 0 W/m 0,0 km/h (0 Bft) 97,87 %
11.12.2017 02:44 2,1 C 1,1 C -1,1 C 93 % 1 lf 982,9 hPa 0,0 l/m 0 min 0 min 0 W/m 0,0 km/h (0 Bft) 100,00 %
11.12.2017 02:46 2,1 C 1,1 C -1,1 C 92 % 1 lf 982,9 hPa 0,0 l/m 0 min 0 min 0 W/m 0,0 km/h (0 Bft) 95,74 %
11.12.2017 02:48 2,1 C 1,1 C -1,1 C 92 % 1 lf 982,9 hPa 0,0 l/m 0 min 0 min 0 W/m 0,0 km/h (0 Bft) 100,00 %
11.12.2017 02:50 2,1 C 1,1 C -1,1 C 93 % 1 lf 982,9 hPa 0,0 l/m 0 min 0 min 0 W/m 0,0 km/h (0 Bft) 97,87 %
11.12.2017 02:52 2,0 C 1,1 C -0,6 C 93 % 1 lf 982,9 hPa 0,0 l/m 0 min 0 min 0 W/m 0,0 km/h (0 Bft) 100,00 %
11.12.2017 02:54 1,9 C 1,1 C -0,6 C 93 % 1 lf 982,8 hPa 0,0 l/m 0 min 0 min 0 W/m 0,0 km/h (0 Bft) 95,74 %
11.12.2017 02:56 1,9 C 1,1 C -0,6 C 93 % 1 lf 982,7 hPa 0,0 l/m 0 min 0 min 0 W/m 0,0 km/h (0 Bft) 97,83 %
11.12.2017 02:58 1,9 C 1,1 C -0,6 C 93 % 1 lf 982,8 hPa 0,0 l/m 0 min 0 min 0 W/m 0,0 km/h (0 Bft) 97,87 %
11.12.2017 03:00 1,9 C 1,1 C 0,0 C 93 % 1 lf 982,8 hPa 0,0 l/m 0 min 0 min 0 W/m 0,0 km/h (0 Bft) 100,00 %
11.12.2017 03:02 1,9 C 1,1 C 0,0 C 93 % 1 lf 982,8 hPa 0,0 l/m 0 min 0 min 0 W/m 0,0 km/h (0 Bft) 95,74 %
11.12.2017 03:04 1,8 C 1,1 C 0,0 C 92 % 1 lf 982,9 hPa 0,0 l/m 0 min 0 min 0 W/m 0,0 km/h (0 Bft) 100,00 %
11.12.2017 03:06 1,8 C 1,1 C 0,0 C 92 % 1 lf 983,0 hPa 0,0 l/m 0 min 0 min 0 W/m 0,0 km/h (0 Bft) 100,00 %
11.12.2017 03:08 1,8 C 1,7 C 0,0 C 92 % 1 lf 983,1 hPa 0,0 l/m 0 min 0 min 0 W/m 0,0 km/h (0 Bft) 95,65 %
11.12.2017 03:10 1,8 C 1,7 C 0,0 C 92 % 1 lf 983,1 hPa 0,0 l/m 0 min 0 min 0 W/m 0,0 km/h (0 Bft) 85,11 %
11.12.2017 03:12 1,8 C 1,7 C 0,0 C 92 % 1 lf 983,0 hPa 0,0 l/m 0 min 0 min 0 W/m 0,0 km/h (0 Bft) 97,87 %
11.12.2017 03:14 1,8 C 1,7 C 0,0 C 93 % 1 lf 983,2 hPa 0,0 l/m 0 min 0 min 0 W/m 0,0 km/h (0 Bft) 97,87 %
11.12.2017 03:16 1,7 C 1,7 C 0,0 C 93 % 1 lf 983,3 hPa 0,0 l/m 0 min 0 min 0 W/m 0,0 km/h (0 Bft) 93,62 %
11.12.2017 03:18 1,8 C 1,7 C 0,0 C 93 % 1 lf 983,4 hPa 0,0 l/m 0 min 0 min 0 W/m 4,5 km/h (1 Bft) 91,49 %
11.12.2017 03:20 1,8 C 1,7 C 0,0 C 93 % 1 lf 983,6 hPa 0,0 l/m 0 min 0 min 0 W/m 4,5 km/h (1 Bft) 93,48 %
11.12.2017 03:22 1,8 C 1,7 C 0,0 C 93 % 1 lf 983,6 hPa 0,0 l/m 0 min 0 min 0 W/m 4,5 km/h (1 Bft) 95,74 %
11.12.2017 03:24 1,7 C 1,7 C 0,0 C 93 % 1 lf 983,7 hPa 0,0 l/m 0 min 0 min 0 W/m 2,3 km/h (1 Bft) 95,74 %
11.12.2017 03:26 1,8 C 1,7 C 0,0 C 93 % 1 lf 983,7 hPa 0,0 l/m 0 min 0 min 0 W/m 4,5 km/h (1 Bft) 93,62 %
11.12.2017 03:28 1,7 C 1,7 C 0,0 C 93 % 1 lf 983,8 hPa 0,0 l/m 0 min 0 min 0 W/m 2,3 km/h (1 Bft) 93,62 %
11.12.2017 03:30 1,7 C 1,7 C 0,0 C 93 % 1 lf 983,8 hPa 0,0 l/m 0 min 0 min 0 W/m 9,0 km/h (2 Bft) 95,74 %
11.12.2017 03:32 1,7 C 1,7 C 0,6 C 93 % 1 lf 983,9 hPa 0,0 l/m 0 min 0 min 0 W/m 9,0 km/h (2 Bft) 86,96 %
11.12.2017 03:34 1,7 C 1,7 C 0,6 C 93 % 0 lf 984,1 hPa 0,0 l/m 0 min 0 min 0 W/m 9,0 km/h (2 Bft) 95,74 %
11.12.2017 03:36 1,8 C 1,7 C 0,6 C 93 % 0 lf 984,1 hPa 0,0 l/m 0 min 0 min 0 W/m 6,8 km/h (2 Bft) 93,62 %
11.12.2017 03:38 1,8 C 1,7 C 0,6 C 93 % 0 lf 984,2 hPa 0,0 l/m 0 min 0 min 0 W/m 6,8 km/h (2 Bft) 95,74 %
11.12.2017 03:40 1,8 C 1,7 C 0,6 C 93 % 0 lf 984,3 hPa 0,0 l/m 0 min 0 min 0 W/m 9,0 km/h (2 Bft) 95,74 %
11.12.2017 03:42 1,8 C 1,7 C 0,6 C 93 % 0 lf 984,4 hPa 0,0 l/m 0 min 0 min 0 W/m 6,8 km/h (2 Bft) 89,13 %
11.12.2017 03:44 1,8 C 1,7 C 0,6 C 93 % 0 lf 984,4 hPa 0,0 l/m 0 min 0 min 0 W/m 6,8 km/h (2 Bft) 93,62 %
11.12.2017 03:46 1,8 C 1,7 C 0,6 C 93 % 0 lf 984,5 hPa 0,0 l/m 0 min 0 min 0 W/m 6,8 km/h (2 Bft) 91,49 %
11.12.2017 03:48 1,8 C 1,7 C 0,6 C 93 % 0 lf 984,5 hPa 0,0 l/m 0 min 0 min 0 W/m 2,3 km/h (1 Bft) 93,62 %
11.12.2017 03:50 1,8 C 2,2 C 0,6 C 94 % 0 lf 984,6 hPa 0,0 l/m 0 min 0 min 0 W/m 4,5 km/h (1 Bft) 91,49 %
11.12.2017 03:52 1,8 C 1,7 C 0,6 C 94 % 0 lf 984,6 hPa 0,0 l/m 0 min 0 min 0 W/m 2,3 km/h (1 Bft) 93,62 %
11.12.2017 03:54 1,8 C 1,7 C 0,6 C 94 % 0 lf 984,7 hPa 0,0 l/m 0 min 0 min 0 W/m 6,8 km/h (2 Bft) 91,30 %
11.12.2017 03:56 1,8 C 1,7 C 0,6 C 93 % 0 lf 984,7 hPa 0,0 l/m 0 min 0 min 0 W/m 4,5 km/h (1 Bft) 91,49 %
11.12.2017 03:58 1,8 C 1,7 C 0,6 C 94 % 0 lf 984,7 hPa 0,0 l/m 0 min 0 min 0 W/m 6,8 km/h (2 Bft) 93,62 %
11.12.2017 04:00 1,8 C 1,7 C 0,6 C 94 % 0 lf 984,7 hPa 0,0 l/m 0 min 0 min 0 W/m 9,0 km/h (2 Bft) 93,62 %
11.12.2017 04:02 1,8 C 1,7 C 0,6 C 94 % 0 lf 984,7 hPa 0,0 l/m 0 min 0 min 0 W/m 6,8 km/h (2 Bft) 91,67 %
11.12.2017 04:04 1,8 C 1,7 C 0,6 C 94 % 0 lf 984,8 hPa 0,0 l/m 0 min 0 min 0 W/m 6,8 km/h (2 Bft) 97,87 %
11.12.2017 04:06 1,8 C 1,7 C 0,6 C 94 % 0 lf 984,8 hPa 0,0 l/m 0 min 0 min 0 W/m 4,5 km/h (1 Bft) 95,65 %
11.12.2017 04:08 1,9 C 1,7 C 0,6 C 94 % 0 lf 984,8 hPa 0,0 l/m 0 min 0 min 0 W/m 4,5 km/h (1 Bft) 93,62 %
11.12.2017 04:10 1,8 C 1,7 C 0,6 C 94 % 0 lf 984,7 hPa 0,0 l/m 0 min 0 min 0 W/m 4,5 km/h (1 Bft) 93,62 %
11.12.2017 04:12 1,9 C 1,7 C 0,6 C 94 % 0 lf 984,7 hPa 0,0 l/m 0 min 0 min 0 W/m 4,5 km/h (1 Bft) 93,62 %
11.12.2017 04:14 1,9 C 1,7 C 0,6 C 94 % 0 lf 984,7 hPa 0,0 l/m 0 min 0 min 0 W/m 2,3 km/h (1 Bft) 93,62 %
11.12.2017 04:16 1,9 C 1,7 C 0,6 C 94 % 0 lf 984,6 hPa 0,0 l/m 0 min 0 min 0 W/m 4,5 km/h (1 Bft) 97,87 %
11.12.2017 04:18 1,9 C 1,7 C 0,6 C 94 % 0 lf 984,5 hPa 0,0 l/m 0 min 0 min 0 W/m 4,5 km/h (1 Bft) 100,00 %
11.12.2017 04:20 1,9 C 1,7 C 0,6 C 94 % 0 lf 984,4 hPa 0,0 l/m 0 min 0 min 0 W/m 4,5 km/h (1 Bft) 97,87 %
11.12.2017 04:22 1,9 C 1,7 C 0,6 C 94 % 0 lf 984,3 hPa 0,0 l/m 0 min 0 min 0 W/m 4,5 km/h (1 Bft) 95,74 %
11.12.2017 04:24 1,9 C 1,7 C 0,6 C 94 % 0 lf 984,3 hPa 0,0 l/m 0 min 0 min 0 W/m 4,5 km/h (1 Bft) 97,87 %
11.12.2017 04:26 1,9 C 1,7 C 0,6 C 94 % 0 lf 984,3 hPa 0,0 l/m 0 min 0 min 0 W/m 2,3 km/h (1 Bft) 100,00 %
11.12.2017 04:28 1,9 C 1,7 C 0,6 C 94 % 0 lf 984,3 hPa 0,0 l/m 0 min 0 min 0 W/m 0,0 km/h (0 Bft) 97,87 %
11.12.2017 04:30 1,9 C 1,7 C 0,6 C 94 % 0 lf 984,3 hPa 0,0 l/m 0 min 0 min 0 W/m 0,0 km/h (0 Bft) 100,00 %
11.12.2017 04:32 1,9 C 1,7 C 0,6 C 94 % 0 lf 984,3 hPa 0,0 l/m 0 min 0 min 0 W/m 0,0 km/h (0 Bft) 100,00 %
11.12.2017 04:34 1,9 C 1,7 C 0,6 C 94 % 0 lf 984,1 hPa 0,0 l/m 0 min 0 min 0 W/m 2,3 km/h (1 Bft) 97,87 %
11.12.2017 04:36 1,9 C 1,7 C 0,6 C 94 % 0 lf 984,0 hPa 0,0 l/m 0 min 0 min 0 W/m 4,5 km/h (1 Bft) 97,87 %
11.12.2017 04:38 1,9 C 1,7 C 0,6 C 94 % 0 lf 984,1 hPa 0,0 l/m 0 min 0 min 0 W/m 4,5 km/h (1 Bft) 97,87 %
11.12.2017 04:40 1,9 C 1,7 C 0,6 C 94 % 0 lf 984,0 hPa 0,0 l/m 0 min 0 min 0 W/m 2,3 km/h (1 Bft) 95,65 %
11.12.2017 04:42 1,9 C 1,7 C 0,6 C 94 % 0 lf 983,9 hPa 0,0 l/m 0 min 0 min 0 W/m 0,0 km/h (0 Bft) 95,74 %
11.12.2017 04:44 1,9 C 1,7 C 0,6 C 94 % 0 lf 983,8 hPa 0,0 l/m 0 min 0 min 0 W/m 4,5 km/h (1 Bft) 95,74 %
11.12.2017 04:46 1,9 C 1,7 C 0,6 C 94 % 0 lf 983,8 hPa 0,0 l/m 0 min 0 min 0 W/m 6,8 km/h (2 Bft) 97,87 %
11.12.2017 04:48 1,9 C 1,7 C 0,6 C 94 % 0 lf 983,8 hPa 0,0 l/m 0 min 0 min 0 W/m 4,5 km/h (1 Bft) 95,74 %
11.12.2017 04:50 1,8 C 1,7 C 0,6 C 94 % 0 lf 983,8 hPa 0,0 l/m 0 min 0 min 0 W/m 6,8 km/h (2 Bft) 97,87 %
11.12.2017 04:52 1,8 C 1,7 C 0,6 C 94 % 0 lf 983,8 hPa 0,0 l/m 0 min 0 min 0 W/m 6,8 km/h (2 Bft) 93,48 %
11.12.2017 04:54 1,8 C 1,7 C 0,6 C 94 % 0 lf 983,8 hPa 0,0 l/m 0 min 0 min 0 W/m 4,5 km/h (1 Bft) 95,74 %
11.12.2017 04:56 1,8 C 1,7 C 0,6 C 94 % 0 lf 983,9 hPa 0,0 l/m 0 min 0 min 0 W/m 2,3 km/h (1 Bft) 97,87 %
11.12.2017 04:58 1,8 C 1,7 C 0,6 C 94 % 0 lf 983,9 hPa 0,0 l/m 0 min 0 min 0 W/m 4,5 km/h (1 Bft) 97,87 %
11.12.2017 05:00 1,8 C 1,7 C 0,6 C 94 % 0 lf 983,7 hPa 0,0 l/m 0 min 0 min 0 W/m 4,5 km/h (1 Bft) 97,87 %
11.12.2017 05:02 1,8 C 1,1 C 0,6 C 94 % 0 lf 983,6 hPa 0,0 l/m 0 min 0 min 0 W/m 6,8 km/h (2 Bft) 95,74 %
11.12.2017 05:04 1,8 C 1,1 C 0,0 C 94 % 0 lf 983,6 hPa 0,0 l/m 0 min 0 min 0 W/m 6,8 km/h (2 Bft) 97,83 %
11.12.2017 05:06 1,8 C 1,1 C 0,0 C 94 % 0 lf 983,6 hPa 0,0 l/m 0 min 0 min 0 W/m 11,3 km/h (2 Bft) 95,74 %
11.12.2017 05:08 1,8 C 1,1 C 0,0 C 94 % 0 lf 983,7 hPa 0,0 l/m 0 min 0 min 0 W/m 20,3 km/h (4 Bft) 95,74 %
11.12.2017 05:10 1,8 C 1,1 C 0,0 C 94 % 0 lf 983,7 hPa 0,0 l/m 0 min 0 min 0 W/m 18,0 km/h (3 Bft) 97,87 %
11.12.2017 05:12 1,7 C 1,1 C 0,0 C 94 % 0 lf 983,6 hPa 0,0 l/m 0 min 0 min 0 W/m 13,5 km/h (3 Bft) 93,62 %
11.12.2017 05:14 1,7 C 1,1 C 0,0 C 94 % 0 lf 983,5 hPa 0,0 l/m 0 min 0 min 0 W/m 11,3 km/h (2 Bft) 95,74 %
11.12.2017 05:16 1,7 C 1,1 C 0,0 C 94 % 0 lf 983,5 hPa 0,0 l/m 0 min 0 min 0 W/m 13,5 km/h (3 Bft) 97,83 %
11.12.2017 05:18 1,6 C 0,6 C 0,0 C 94 % 0 lf 983,4 hPa 0,0 l/m 0 min 0 min 0 W/m 13,5 km/h (3 Bft) 95,74 %
11.12.2017 05:20 1,5 C 0,6 C 0,0 C 94 % 0 lf 983,3 hPa 0,0 l/m 0 min 0 min 0 W/m 13,5 km/h (3 Bft) 97,87 %
11.12.2017 05:22 1,4 C 0,6 C -0,6 C 94 % 0 lf 983,2 hPa 0,0 l/m 0 min 0 min 0 W/m 18,0 km/h (3 Bft) 93,62 %
11.12.2017 05:24 1,4 C 0,6 C -0,6 C 94 % 0 lf 983,2 hPa 0,0 l/m 0 min 0 min 0 W/m 20,3 km/h (4 Bft) 97,87 %
11.12.2017 05:26 1,3 C 0,6 C -0,6 C 94 % 0 lf 983,2 hPa 0,0 l/m 0 min 0 min 0 W/m 15,8 km/h (3 Bft) 100,00 %
11.12.2017 05:28 1,3 C 0,6 C -0,6 C 94 % 0 lf 983,2 hPa 0,0 l/m 0 min 0 min 0 W/m 18,0 km/h (3 Bft) 95,65 %
11.12.2017 05:30 1,2 C 0,6 C -0,6 C 94 % 0 lf 983,2 hPa 0,0 l/m 0 min 0 min 0 W/m 22,5 km/h (4 Bft) 97,87 %
11.12.2017 05:32 1,1 C 0,6 C -0,6 C 94 % 0 lf 983,2 hPa 0,0 l/m 0 min 0 min 0 W/m 20,3 km/h (4 Bft) 100,00 %
11.12.2017 05:34 1,1 C 0,0 C -0,6 C 94 % 0 lf 983,2 hPa 0,0 l/m 0 min 0 min 0 W/m 20,3 km/h (4 Bft) 93,62 %
11.12.2017 05:35 1,0 C 0,0 C -0,6 C 94 % 0 lf 983,2 hPa 0,0 l/m 0 min 0 min 0 W/m 20,3 km/h (4 Bft) 98,25 %
11.12.2017 05:40 0,8 C 0,0 C -0,6 C 94 % 0 lf 983,3 hPa 0,0 l/m 0 min 0 min 0 W/m 18,0 km/h (3 Bft) 96,30 %
11.12.2017 05:42 0,8 C 0,0 C -0,6 C 94 % 0 lf 983,4 hPa 0,0 l/m 0 min 0 min 0 W/m 11,3 km/h (2 Bft) 97,87 %
11.12.2017 05:44 0,7 C 0,0 C -0,6 C 94 % 0 lf 983,4 hPa 0,0 l/m 0 min 0 min 0 W/m 13,5 km/h (3 Bft) 97,87 %
11.12.2017 05:46 0,7 C 0,0 C -1,1 C 94 % 0 lf 983,4 hPa 0,0 l/m 0 min 0 min 0 W/m 15,8 km/h (3 Bft) 97,14 %
11.12.2017 05:48 0,7 C 0,0 C -1,1 C 94 % 0 lf 983,3 hPa 0,0 l/m 0 min 0 min 0 W/m 15,8 km/h (3 Bft) 93,22 %
11.12.2017 05:50 0,6 C 0,0 C -1,1 C 94 % 0 lf 983,4 hPa 0,0 l/m 0 min 0 min 0 W/m 11,3 km/h (2 Bft) 95,92 %
11.12.2017 05:52 0,6 C 0,0 C -1,1 C 94 % 0 lf 983,5 hPa 0,0 l/m 0 min 0 min 0 W/m 11,3 km/h (2 Bft) 97,22 %
11.12.2017 05:54 0,5 C 0,0 C -1,1 C 94 % 0 lf 983,4 hPa 0,0 l/m 0 min 0 min 0 W/m 9,0 km/h (2 Bft) 91,30 %
11.12.2017 05:56 0,5 C 0,0 C -1,1 C 94 % 0 lf 983,4 hPa 0,0 l/m 0 min 0 min 0 W/m 9,0 km/h (2 Bft) 91,49 %
11.12.2017 05:58 0,5 C 0,0 C -1,1 C 94 % 0 lf 983,3 hPa 0,0 l/m 0 min 0 min 0 W/m 11,3 km/h (2 Bft) 95,74 %
11.12.2017 06:00 0,5 C 0,0 C -1,1 C 94 % 0 lf 983,3 hPa 0,0 l/m 0 min 0 min 0 W/m 9,0 km/h (2 Bft) 95,74 %
11.12.2017 06:02 0,5 C 0,0 C -1,1 C 94 % 0 lf 983,2 hPa 0,0 l/m 0 min 0 min 0 W/m 11,3 km/h (2 Bft) 93,62 %
11.12.2017 06:04 0,5 C 0,0 C -1,1 C 94 % 0 lf 983,2 hPa 0,0 l/m 0 min 0 min 0 W/m 13,5 km/h (3 Bft) 95,74 %
11.12.2017 06:06 0,5 C 0,0 C -1,1 C 94 % 0 lf 983,1 hPa 0,0 l/m 0 min 0 min 0 W/m 11,3 km/h (2 Bft) 95,65 %
11.12.2017 06:10 0,4 C 0,0 C -1,1 C 94 % 0 lf 983,0 hPa 0,0 l/m 0 min 0 min 0 W/m 18,0 km/h (3 Bft) 95,05 %
11.12.2017 06:12 0,3 C 0,0 C -0,6 C 94 % 0 lf 982,9 hPa 0,0 l/m 0 min 0 min 0 W/m 15,8 km/h (3 Bft) 97,83 %
11.12.2017 06:14 0,3 C 0,0 C -1,1 C 94 % 0 lf 982,8 hPa 0,0 l/m 0 min 0 min 0 W/m 11,3 km/h (2 Bft) 97,87 %
11.12.2017 06:16 0,3 C 0,0 C -1,1 C 94 % 0 lf 982,7 hPa 0,0 l/m 0 min 0 min 0 W/m 20,3 km/h (4 Bft) 95,74 %
11.12.2017 06:18 0,3 C 0,0 C -1,1 C 94 % 0 lf 982,7 hPa 0,0 l/m 0 min 0 min 0 W/m 11,3 km/h (2 Bft) 95,74 %
11.12.2017 06:20 0,3 C 0,0 C -0,6 C 94 % 0 lf 982,7 hPa 0,0 l/m 0 min 0 min 0 W/m 11,3 km/h (2 Bft) 95,74 %
11.12.2017 06:22 0,3 C 0,0 C -0,6 C 94 % 0 lf 982,7 hPa 0,0 l/m 0 min 0 min 0 W/m 22,5 km/h (4 Bft) 89,36 %
11.12.2017 06:24 0,2 C 0,0 C -0,6 C 94 % 0 lf 982,7 hPa 0,0 l/m 0 min 0 min 0 W/m 18,0 km/h (3 Bft) 97,83 %
11.12.2017 06:26 0,2 C 0,0 C -0,6 C 94 % 0 lf 982,5 hPa 0,0 l/m 0 min 0 min 0 W/m 18,0 km/h (3 Bft) 95,74 %
11.12.2017 06:28 0,2 C 0,0 C -0,6 C 94 % 0 lf 982,5 hPa 0,0 l/m 0 min 0 min 0 W/m 15,8 km/h (3 Bft) 95,74 %
11.12.2017 06:30 0,2 C 0,0 C -0,6 C 94 % 0 lf 982,5 hPa 0,0 l/m 0 min 0 min 0 W/m 11,3 km/h (2 Bft) 97,87 %
11.12.2017 06:32 0,2 C 0,0 C -0,6 C 94 % 0 lf 982,5 hPa 0,0 l/m 0 min 0 min 0 W/m 13,5 km/h (3 Bft) 95,74 %
11.12.2017 06:34 0,2 C 0,0 C -0,6 C 94 % 0 lf 982,4 hPa 0,0 l/m 0 min 0 min 0 W/m 15,8 km/h (3 Bft) 97,87 %
11.12.2017 06:36 0,2 C 0,0 C -0,6 C 94 % 0 lf 982,3 hPa 0,0 l/m 0 min 0 min 0 W/m 13,5 km/h (3 Bft) 97,83 %
11.12.2017 06:38 0,2 C 0,0 C -1,1 C 94 % 0 lf 982,2 hPa 0,0 l/m 0 min 0 min 0 W/m 18,0 km/h (3 Bft) 91,49 %
11.12.2017 06:40 0,2 C 0,0 C -1,1 C 94 % 0 lf 982,2 hPa 0,0 l/m 0 min 0 min 0 W/m 13,5 km/h (3 Bft) 95,74 %
11.12.2017 06:42 0,2 C 0,0 C -1,1 C 94 % 0 lf 982,1 hPa 0,0 l/m 0 min 0 min 0 W/m 18,0 km/h (3 Bft) 97,87 %
11.12.2017 06:44 0,2 C 0,0 C -1,1 C 94 % 0 lf 982,1 hPa 0,0 l/m 0 min 0 min 0 W/m 22,5 km/h (4 Bft) 97,87 %
11.12.2017 06:46 0,2 C 0,0 C -0,6 C 94 % 0 lf 982,1 hPa 0,0 l/m 0 min 0 min 0 W/m 18,0 km/h (3 Bft) 97,87 %
11.12.2017 06:48 0,2 C 0,0 C -1,1 C 94 % 0 lf 982,2 hPa 0,0 l/m 0 min 0 min 0 W/m 20,3 km/h (4 Bft) 97,83 %
11.12.2017 06:50 0,2 C 0,6 C -0,6 C 94 % 0 lf 982,4 hPa 0,0 l/m 0 min 0 min 0 W/m 22,5 km/h (4 Bft) 100,00 %
11.12.2017 06:52 0,2 C 0,6 C -0,6 C 94 % 0 lf 982,4 hPa 0,0 l/m 0 min 0 min 0 W/m 22,5 km/h (4 Bft) 100,00 %
11.12.2017 06:54 0,2 C 0,6 C -0,6 C 94 % 0 lf 982,4 hPa 0,0 l/m 0 min 0 min 0 W/m 18,0 km/h (3 Bft) 93,62 %
11.12.2017 06:56 0,2 C 0,6 C -0,6 C 94 % 0 lf 982,4 hPa 0,0 l/m 0 min 0 min 0 W/m 20,3 km/h (4 Bft) 97,87 %
11.12.2017 06:58 0,2 C 0,6 C -0,6 C 94 % 0 lf 982,3 hPa 0,0 l/m 0 min 0 min 0 W/m 20,3 km/h (4 Bft) 97,83 %
11.12.2017 07:00 0,2 C 0,6 C -0,6 C 94 % 0 lf 982,4 hPa 0,0 l/m 0 min 0 min 0 W/m 13,5 km/h (3 Bft) 100,00 %
11.12.2017 07:02 0,2 C 0,6 C -0,6 C 94 % 0 lf 982,4 hPa 0,0 l/m 0 min 0 min 0 W/m 13,5 km/h (3 Bft) 97,87 %
11.12.2017 07:04 0,2 C 0,6 C -0,6 C 93 % 0 lf 982,3 hPa 0,0 l/m 0 min 0 min 0 W/m 18,0 km/h (3 Bft) 95,74 %
11.12.2017 07:06 0,2 C 0,6 C -0,6 C 93 % 0 lf 982,2 hPa 0,0 l/m 0 min 0 min 0 W/m 20,3 km/h (4 Bft) 97,87 %
11.12.2017 07:08 0,2 C 0,6 C -0,6 C 93 % 0 lf 982,1 hPa 0,0 l/m 0 min 0 min 0 W/m 11,3 km/h (2 Bft) 100,00 %
11.12.2017 07:10 0,3 C 0,6 C -0,6 C 93 % 0 lf 982,1 hPa 0,0 l/m 0 min 0 min 0 W/m 18,0 km/h (3 Bft) 97,83 %
11.12.2017 07:12 0,3 C 0,6 C -0,6 C 93 % 0 lf 982,1 hPa 0,0 l/m 0 min 0 min 0 W/m 20,3 km/h (4 Bft) 100,00 %
11.12.2017 07:14 0,3 C 0,6 C -0,6 C 93 % 0 lf 982,2 hPa 0,0 l/m 0 min 0 min 0 W/m 22,5 km/h (4 Bft) 97,87 %
11.12.2017 07:16 0,3 C 0,6 C -0,6 C 93 % 0 lf 982,2 hPa 0,0 l/m 0 min 0 min 0 W/m 22,5 km/h (4 Bft) 91,49 %
11.12.2017 07:18 0,3 C 0,6 C -0,6 C 93 % 0 lf 982,1 hPa 0,0 l/m 0 min 0 min 0 W/m 24,8 km/h (4 Bft) 97,87 %
11.12.2017 07:20 0,3 C 0,6 C -0,6 C 93 % 0 lf 982,0 hPa 0,0 l/m 0 min 0 min 0 W/m 20,3 km/h (4 Bft) 93,62 %
11.12.2017 07:22 0,3 C 0,6 C -0,6 C 93 % 0 lf 981,9 hPa 0,0 l/m 0 min 0 min 0 W/m 20,3 km/h (4 Bft) 97,83 %
11.12.2017 07:24 0,3 C 0,6 C -0,6 C 93 % 0 lf 981,9 hPa 0,0 l/m 0 min 0 min 0 W/m 20,3 km/h (4 Bft) 95,74 %
11.12.2017 07:26 0,3 C 0,6 C -0,6 C 93 % 0 lf 981,9 hPa 0,0 l/m 0 min 0 min 0 W/m 22,5 km/h (4 Bft) 91,49 %
11.12.2017 07:28 0,3 C 0,6 C -0,6 C 93 % 0 lf 981,8 hPa 0,0 l/m 0 min 0 min 0 W/m 13,5 km/h (3 Bft) 95,74 %
11.12.2017 07:30 0,3 C 0,6 C -0,6 C 93 % 0 lf 981,8 hPa 0,0 l/m 0 min 0 min 0 W/m 20,3 km/h (4 Bft) 93,62 %
11.12.2017 07:32 0,3 C 0,6 C -0,6 C 93 % 0 lf 981,7 hPa 0,0 l/m 0 min 0 min 0 W/m 20,3 km/h (4 Bft) 89,36 %
11.12.2017 07:34 0,3 C 0,0 C -0,6 C 93 % 0 lf 981,6 hPa 0,0 l/m 0 min 0 min 0 W/m 20,3 km/h (4 Bft) 93,48 %
11.12.2017 07:36 0,3 C 0,0 C -0,6 C 93 % 0 lf 981,5 hPa 0,0 l/m 0 min 0 min 0 W/m 18,0 km/h (3 Bft) 93,62 %
11.12.2017 07:38 0,3 C 0,0 C -0,6 C 93 % 0 lf 981,5 hPa 0,0 l/m 0 min 0 min 0 W/m 24,8 km/h (4 Bft) 93,62 %
11.12.2017 07:40 0,3 C 0,0 C -0,6 C 93 % 0 lf 981,5 hPa 0,0 l/m 0 min 0 min 0 W/m 24,8 km/h (4 Bft) 93,62 %
11.12.2017 07:42 0,3 C 0,0 C -0,6 C 93 % 0 lf 981,5 hPa 0,0 l/m 0 min 0 min 0 W/m 22,5 km/h (4 Bft) 91,49 %
11.12.2017 07:44 0,3 C 0,0 C -0,6 C 93 % 0 lf 981,6 hPa 0,0 l/m 0 min 0 min 0 W/m 24,8 km/h (4 Bft) 91,49 %
11.12.2017 07:46 0,3 C 0,6 C -0,6 C 93 % 0 lf 981,5 hPa 0,0 l/m 0 min 0 min 0 W/m 15,8 km/h (3 Bft) 93,48 %
11.12.2017 07:48 0,3 C 0,6 C -0,6 C 93 % 0 lf 981,5 hPa 0,0 l/m 0 min 0 min 0 W/m 20,3 km/h (4 Bft) 91,49 %
11.12.2017 07:50 0,3 C 0,6 C -0,6 C 93 % 0 lf 981,6 hPa 0,0 l/m 0 min 0 min 0 W/m 13,5 km/h (3 Bft) 93,62 %
11.12.2017 07:52 0,3 C 0,6 C -0,6 C 93 % 0 lf 981,7 hPa 0,0 l/m 0 min 0 min 0 W/m 15,8 km/h (3 Bft) 93,62 %
11.12.2017 07:54 0,3 C 0,6 C -0,6 C 93 % 0 lf 981,7 hPa 0,0 l/m 0 min 0 min 0 W/m 20,3 km/h (4 Bft) 93,62 %
11.12.2017 07:56 0,3 C 0,6 C -0,6 C 93 % 0 lf 981,8 hPa 0,0 l/m 0 min 0 min 0 W/m 18,0 km/h (3 Bft) 93,48 %
11.12.2017 07:58 0,3 C 0,6 C -0,6 C 93 % 0 lf 981,8 hPa 0,0 l/m 0 min 0 min 0 W/m 18,0 km/h (3 Bft) 95,74 %
11.12.2017 08:00 0,3 C 0,6 C -0,6 C 93 % 0 lf 981,8 hPa 0,0 l/m 0 min 0 min 0 W/m 24,8 km/h (4 Bft) 91,49 %
11.12.2017 08:02 0,3 C 0,6 C -0,6 C 93 % 0 lf 981,8 hPa 0,0 l/m 0 min 0 min 0 W/m 20,3 km/h (4 Bft) 95,74 %
11.12.2017 08:04 0,3 C 0,6 C -0,6 C 93 % 0 lf 981,9 hPa 0,0 l/m 0 min 0 min 0 W/m 13,5 km/h (3 Bft) 95,74 %
11.12.2017 08:06 0,3 C 0,6 C -0,6 C 93 % 0 lf 981,9 hPa 0,0 l/m 0 min 0 min 0 W/m 18,0 km/h (3 Bft) 93,62 %
11.12.2017 08:08 0,3 C 0,6 C -0,6 C 93 % 0 lf 981,9 hPa 0,0 l/m 0 min 0 min 0 W/m 20,3 km/h (4 Bft) 93,48 %
11.12.2017 08:10 0,3 C 0,6 C -0,6 C 93 % 0 lf 981,9 hPa 0,0 l/m 0 min 0 min 0 W/m 24,8 km/h (4 Bft) 95,74 %
11.12.2017 08:12 0,3 C 0,6 C -0,6 C 93 % 0 lf 982,0 hPa 0,0 l/m 0 min 0 min 0 W/m 20,3 km/h (4 Bft) 93,62 %
11.12.2017 08:14 0,3 C 0,6 C -0,6 C 93 % 0 lf 981,9 hPa 0,0 l/m 0 min 0 min 0 W/m 20,3 km/h (4 Bft) 95,74 %
11.12.2017 08:16 0,4 C 0,6 C -0,6 C 93 % 0 lf 981,8 hPa 0,0 l/m 0 min 0 min 0 W/m 27,0 km/h (4 Bft) 91,49 %
11.12.2017 08:18 0,4 C 0,6 C -0,6 C 93 % 0 lf 981,8 hPa 0,0 l/m 0 min 0 min 0 W/m 20,3 km/h (4 Bft) 93,62 %
11.12.2017 08:20 0,4 C 0,6 C -0,6 C 93 % 0 lf 982,0 hPa 0,0 l/m 0 min 0 min 0 W/m 22,5 km/h (4 Bft) 93,48 %
11.12.2017 08:22 0,4 C 0,6 C -0,6 C 93 % 0 lf 982,1 hPa 0,0 l/m 0 min 0 min 0 W/m 15,8 km/h (3 Bft) 100,00 %
11.12.2017 08:24 0,4 C 0,6 C -0,6 C 93 % 0 lf 982,0 hPa 0,0 l/m 0 min 0 min 0 W/m 22,5 km/h (4 Bft) 100,00 %
11.12.2017 08:26 0,4 C 0,6 C -0,6 C 93 % 0 lf 982,1 hPa 0,0 l/m 0 min 0 min 0 W/m 22,5 km/h (4 Bft) 97,87 %
11.12.2017 08:28 0,4 C 0,6 C -0,6 C 93 % 0 lf 982,0 hPa 0,0 l/m 0 min 0 min 0 W/m 20,3 km/h (4 Bft) 100,00 %
11.12.2017 08:30 0,4 C 0,6 C -0,6 C 93 % 0 lf 981,9 hPa 0,0 l/m 0 min 0 min 0 W/m 20,3 km/h (4 Bft) 100,00 %
11.12.2017 08:32 0,4 C 0,6 C -0,6 C 93 % 0 lf 981,9 hPa 0,0 l/m 0 min 0 min 0 W/m 15,8 km/h (3 Bft) 100,00 %
11.12.2017 08:34 0,4 C 0,6 C -0,6 C 93 % 0 lf 982,1 hPa 0,0 l/m 0 min 0 min 0 W/m 24,8 km/h (4 Bft) 95,74 %
11.12.2017 08:36 0,4 C 0,6 C -0,6 C 93 % 0 lf 982,1 hPa 0,0 l/m 0 min 0 min 0 W/m 22,5 km/h (4 Bft) 97,87 %
11.12.2017 08:38 0,5 C 0,6 C -0,6 C 93 % 0 lf 982,1 hPa 0,0 l/m 0 min 0 min 0 W/m 20,3 km/h (4 Bft) 97,87 %
11.12.2017 08:40 0,5 C 0,6 C -0,6 C 93 % 0 lf 982,0 hPa 0,0 l/m 0 min 0 min 0 W/m 15,8 km/h (3 Bft) 95,74 %
11.12.2017 08:42 0,5 C 0,6 C -0,6 C 93 % 0 lf 982,0 hPa 0,0 l/m 0 min 0 min 0 W/m 22,5 km/h (4 Bft) 97,83 %
11.12.2017 08:44 0,5 C 0,6 C -0,6 C 93 % 0 lf 981,9 hPa 0,0 l/m 0 min 0 min 0 W/m 22,5 km/h (4 Bft) 93,48 %
11.12.2017 08:46 0,5 C 0,6 C -0,6 C 93 % 0 lf 981,8 hPa 0,0 l/m 0 min 0 min 0 W/m 20,3 km/h (4 Bft) 95,74 %
11.12.2017 08:48 0,5 C 0,6 C -0,6 C 93 % 0 lf 981,8 hPa 0,0 l/m 0 min 0 min 0 W/m 24,8 km/h (4 Bft) 97,87 %
11.12.2017 08:50 0,5 C 0,6 C -0,6 C 93 % 0 lf 981,8 hPa 0,0 l/m 0 min 0 min 0 W/m 20,3 km/h (4 Bft) 95,74 %
11.12.2017 08:52 0,5 C 0,6 C -0,6 C 93 % 1 lf 981,8 hPa 0,0 l/m 0 min 0 min 0 W/m 20,3 km/h (4 Bft) 95,74 %
11.12.2017 08:54 0,5 C 0,6 C -0,6 C 93 % 3 lf 981,7 hPa 0,0 l/m 0 min 0 min 0 W/m 24,8 km/h (4 Bft) 97,87 %
11.12.2017 08:56 0,5 C 0,6 C -0,6 C 93 % 3 lf 981,6 hPa 0,0 l/m 0 min 0 min 0 W/m 18,0 km/h (3 Bft) 97,83 %
11.12.2017 08:58 0,5 C 0,6 C -0,6 C 93 % 3 lf 981,5 hPa 0,0 l/m 0 min 0 min 0 W/m 29,3 km/h (5 Bft) 97,87 %
11.12.2017 09:00 0,5 C 0,6 C -0,6 C 93 % 4 lf 981,5 hPa 0,0 l/m 0 min 0 min 0 W/m 20,3 km/h (4 Bft) 97,87 %
11.12.2017 09:02 0,5 C 0,6 C -1,1 C 93 % 4 lf 981,5 hPa 0,0 l/m 0 min 0 min 0 W/m 24,8 km/h (4 Bft) 93,62 %
11.12.2017 09:04 0,5 C 0,6 C -1,1 C 93 % 4 lf 981,4 hPa 0,0 l/m 0 min 0 min 0 W/m 18,0 km/h (3 Bft) 97,87 %
11.12.2017 09:06 0,5 C 0,0 C -1,1 C 93 % 4 lf 981,4 hPa 0,0 l/m 0 min 0 min 4 W/m 22,5 km/h (4 Bft) 97,83 %
11.12.2017 09:08 0,5 C 0,0 C -1,1 C 93 % 4 lf 981,3 hPa 0,0 l/m 0 min 0 min 5 W/m 20,3 km/h (4 Bft) 95,74 %
11.12.2017 09:10 0,5 C 0,0 C -1,1 C 93 % 4 lf 981,3 hPa 0,0 l/m 0 min 2 min 5 W/m 20,3 km/h (4 Bft) 95,74 %
11.12.2017 09:12 0,5 C 0,0 C -1,1 C 93 % 5 lf 981,3 hPa 0,0 l/m 0 min 2 min 5 W/m 20,3 km/h (4 Bft) 93,62 %
11.12.2017 09:14 0,5 C 0,0 C -1,1 C 93 % 6 lf 981,3 hPa 0,0 l/m 0 min 0 min 5 W/m 20,3 km/h (4 Bft) 95,74 %
11.12.2017 09:16 0,5 C 0,0 C -1,1 C 93 % 6 lf 981,3 hPa 0,0 l/m 0 min 0 min 5 W/m 18,0 km/h (3 Bft) 97,87 %
11.12.2017 09:18 0,5 C 0,0 C -1,1 C 93 % 5 lf 981,3 hPa 0,0 l/m 0 min 0 min 5 W/m 22,5 km/h (4 Bft) 97,83 %
11.12.2017 09:20 0,5 C 0,0 C -1,1 C 93 % 5 lf 981,3 hPa 0,0 l/m 0 min 0 min 5 W/m 22,5 km/h (4 Bft) 100,00 %
11.12.2017 09:22 0,5 C 0,0 C -1,1 C 93 % 5 lf 981,2 hPa 0,0 l/m 0 min 2 min 5 W/m 33,8 km/h (5 Bft) 97,87 %
11.12.2017 09:24 0,5 C 0,0 C -1,1 C 93 % 4 lf 981,1 hPa 0,0 l/m 0 min 0 min 5 W/m 27,0 km/h (4 Bft) 97,87 %
11.12.2017 09:26 0,5 C 0,0 C -1,1 C 93 % 4 lf 981,1 hPa 0,0 l/m 0 min 2 min 6 W/m 20,3 km/h (4 Bft) 93,62 %
11.12.2017 09:28 0,5 C 0,0 C -1,1 C 93 % 4 lf 981,0 hPa 0,0 l/m 0 min 2 min 7 W/m 29,3 km/h (5 Bft) 97,87 %
11.12.2017 09:30 0,5 C 0,0 C -1,1 C 93 % 5 lf 981,0 hPa 0,0 l/m 0 min 2 min 7 W/m 29,3 km/h (5 Bft) 95,65 %
11.12.2017 09:32 0,5 C 0,0 C -1,1 C 93 % 5 lf 981,1 hPa 0,0 l/m 0 min 2 min 7 W/m 20,3 km/h (4 Bft) 93,62 %
11.12.2017 09:34 0,4 C 0,0 C -1,1 C 93 % 7 lf 981,2 hPa 0,0 l/m 0 min 2 min 7 W/m 15,8 km/h (3 Bft) 97,87 %
11.12.2017 09:36 0,4 C 0,0 C -1,1 C 93 % 9 lf 981,2 hPa 0,0 l/m 0 min 2 min 7 W/m 18,0 km/h (3 Bft) 93,62 %
11.12.2017 09:38 0,4 C 0,0 C -1,1 C 94 % 12 lf 981,2 hPa 0,0 l/m 0 min 2 min 7 W/m 20,3 km/h (4 Bft) 97,87 %
11.12.2017 09:40 0,4 C 0,0 C -1,1 C 94 % 13 lf 981,1 hPa 0,0 l/m 0 min 2 min 7 W/m 31,5 km/h (5 Bft) 95,74 %
11.12.2017 09:42 0,5 C 0,0 C -1,1 C 94 % 14 lf 981,2 hPa 0,0 l/m 0 min 2 min 7 W/m 22,5 km/h (4 Bft) 97,83 %
11.12.2017 09:44 0,4 C 0,0 C -1,1 C 93 % 15 lf 981,1 hPa 0,0 l/m 0 min 2 min 7 W/m 22,5 km/h (4 Bft) 97,87 %
11.12.2017 09:46 0,4 C 0,0 C -1,1 C 94 % 15 lf 981,2 hPa 0,0 l/m 0 min 2 min 7 W/m 24,8 km/h (4 Bft) 93,62 %
11.12.2017 09:48 0,4 C 0,0 C -1,1 C 94 % 14 lf 981,2 hPa 0,0 l/m 0 min 2 min 7 W/m 24,8 km/h (4 Bft) 95,74 %
11.12.2017 09:50 0,4 C 0,0 C -1,1 C 94 % 14 lf 981,2 hPa 0,0 l/m 0 min 2 min 7 W/m 22,5 km/h (4 Bft) 95,74 %
11.12.2017 09:52 0,4 C 0,0 C -1,1 C 94 % 14 lf 981,1 hPa 0,0 l/m 0 min 2 min 7 W/m 18,0 km/h (3 Bft) 100,00 %
11.12.2017 09:54 0,4 C 0,0 C -1,1 C 94 % 15 lf 981,2 hPa 0,0 l/m 0 min 2 min 7 W/m 20,3 km/h (4 Bft) 100,00 %
11.12.2017 09:56 0,4 C 0,0 C -1,1 C 94 % 14 lf 981,1 hPa 0,0 l/m 0 min 2 min 8 W/m 27,0 km/h (4 Bft) 100,00 %
11.12.2017 09:58 0,4 C 0,0 C -1,1 C 94 % 15 lf 981,1 hPa 0,0 l/m 0 min 2 min 9 W/m 29,3 km/h (5 Bft) 100,00 %
11.12.2017 10:00 0,4 C 0,0 C -1,1 C 94 % 15 lf 981,1 hPa 0,0 l/m 0 min 2 min 9 W/m 22,5 km/h (4 Bft) 100,00 %
11.12.2017 10:02 0,4 C 0,0 C -1,1 C 94 % 15 lf 981,0 hPa 0,0 l/m 0 min 2 min 9 W/m 24,8 km/h (4 Bft) 100,00 %
11.12.2017 10:04 0,4 C 0,0 C -1,1 C 94 % 15 lf 981,0 hPa 0,0 l/m 0 min 2 min 11 W/m 15,8 km/h (3 Bft) 100,00 %
11.12.2017 10:06 0,4 C 0,0 C -1,1 C 94 % 15 lf 981,0 hPa 0,0 l/m 0 min 2 min 11 W/m 15,8 km/h (3 Bft) 100,00 %
11.12.2017 10:08 0,4 C 0,0 C -1,1 C 94 % 15 lf 981,0 hPa 0,0 l/m 0 min 2 min 11 W/m 18,0 km/h (3 Bft) 100,00 %
11.12.2017 10:10 0,4 C 0,0 C -1,1 C 94 % 15 lf 980,9 hPa 0,0 l/m 0 min 2 min 11 W/m 24,8 km/h (4 Bft) 100,00 %
11.12.2017 10:12 0,4 C 0,0 C -1,1 C 94 % 15 lf 980,8 hPa 0,0 l/m 0 min 2 min 11 W/m 29,3 km/h (5 Bft) 100,00 %
11.12.2017 10:14 0,4 C 0,0 C -1,1 C 94 % 15 lf 980,7 hPa 0,2 l/m 0 min 2 min 11 W/m 31,5 km/h (5 Bft) 95,74 %
11.12.2017 10:16 0,4 C 0,0 C -1,1 C 94 % 15 lf 980,9 hPa 0,0 l/m 0 min 2 min 11 W/m 18,0 km/h (3 Bft) 97,83 %
11.12.2017 10:18 0,4 C 0,0 C -1,1 C 94 % 15 lf 981,0 hPa 0,0 l/m 0 min 2 min 10 W/m 24,8 km/h (4 Bft) 97,87 %
11.12.2017 10:20 0,4 C 0,0 C -1,1 C 94 % 15 lf 980,9 hPa 0,2 l/m 0 min 2 min 9 W/m 24,8 km/h (4 Bft) 100,00 %
11.12.2017 10:22 0,4 C 0,0 C -1,1 C 94 % 15 lf 980,7 hPa 0,0 l/m 0 min 2 min 9 W/m 24,8 km/h (4 Bft) 97,87 %
11.12.2017 10:24 0,4 C 0,0 C -1,1 C 94 % 15 lf 980,8 hPa 0,2 l/m 0 min 2 min 9 W/m 31,5 km/h (5 Bft) 100,00 %
11.12.2017 10:26 0,4 C 0,0 C -1,1 C 95 % 15 lf 980,8 hPa 0,0 l/m 0 min 2 min 9 W/m 24,8 km/h (4 Bft) 100,00 %
11.12.2017 10:28 0,4 C 0,0 C -1,1 C 95 % 15 lf 981,0 hPa 0,0 l/m 0 min 2 min 9 W/m 20,3 km/h (4 Bft) 95,65 %
11.12.2017 10:30 0,4 C 0,0 C -1,1 C 94 % 15 lf 981,0 hPa 0,2 l/m 0 min 2 min 9 W/m 29,3 km/h (5 Bft) 97,87 %
11.12.2017 10:32 0,4 C 0,0 C -1,1 C 94 % 15 lf 980,8 hPa 0,0 l/m 0 min 2 min 9 W/m 29,3 km/h (5 Bft) 97,87 %
11.12.2017 10:34 0,4 C 0,0 C -1,1 C 95 % 15 lf 980,7 hPa 0,0 l/m 0 min 2 min 9 W/m 29,3 km/h (5 Bft) 97,87 %
11.12.2017 10:36 0,4 C 0,0 C -1,1 C 95 % 15 lf 980,5 hPa 0,0 l/m 0 min 2 min 9 W/m 31,5 km/h (5 Bft) 93,62 %
11.12.2017 10:38 0,4 C 0,0 C -1,1 C 95 % 15 lf 980,4 hPa 0,2 l/m 0 min 2 min 9 W/m 24,8 km/h (4 Bft) 95,74 %
11.12.2017 10:40 0,4 C 0,0 C -1,1 C 95 % 15 lf 980,5 hPa 0,0 l/m 0 min 2 min 9 W/m 29,3 km/h (5 Bft) 97,83 %
11.12.2017 10:42 0,4 C 0,0 C -1,1 C 95 % 15 lf 980,5 hPa 0,0 l/m 0 min 2 min 9 W/m 22,5 km/h (4 Bft) 97,87 %
11.12.2017 10:44 0,4 C 0,0 C -1,1 C 95 % 15 lf 980,6 hPa 0,2 l/m 0 min 2 min 9 W/m 24,8 km/h (4 Bft) 95,74 %
11.12.2017 10:46 0,4 C 0,0 C -1,1 C 95 % 15 lf 980,5 hPa 0,0 l/m 0 min 2 min 9 W/m 29,3 km/h (5 Bft) 95,74 %
11.12.2017 10:48 0,4 C 0,0 C -1,1 C 95 % 15 lf 980,4 hPa 0,0 l/m 0 min 2 min 8 W/m 22,5 km/h (4 Bft) 93,62 %
11.12.2017 10:50 0,4 C 0,0 C -1,1 C 95 % 15 lf 980,4 hPa 0,2 l/m 0 min 2 min 7 W/m 22,5 km/h (4 Bft) 95,74 %
11.12.2017 10:52 0,4 C 0,0 C -1,1 C 95 % 15 lf 980,2 hPa 0,0 l/m 0 min 2 min 7 W/m 29,3 km/h (5 Bft) 95,65 %
11.12.2017 10:54 0,4 C 0,0 C -1,1 C 95 % 15 lf 980,1 hPa 0,0 l/m 0 min 2 min 7 W/m 31,5 km/h (5 Bft) 95,74 %
11.12.2017 10:56 0,4 C 0,0 C -1,1 C 95 % 15 lf 980,2 hPa 0,2 l/m 0 min 2 min 9 W/m 27,0 km/h (4 Bft) 93,62 %
11.12.2017 10:58 0,4 C 0,0 C -1,1 C 95 % 15 lf 980,0 hPa 0,0 l/m 0 min 2 min 9 W/m 22,5 km/h (4 Bft) 97,87 %
11.12.2017 11:00 0,4 C 0,0 C -1,1 C 95 % 15 lf 980,0 hPa 0,0 l/m 0 min 2 min 9 W/m 31,5 km/h (5 Bft) 95,74 %
11.12.2017 11:02 0,4 C 0,0 C -1,1 C 95 % 15 lf 980,0 hPa 0,0 l/m 0 min 2 min 7 W/m 29,3 km/h (5 Bft) 97,87 %
11.12.2017 11:04 0,4 C 0,0 C -1,1 C 95 % 15 lf 980,2 hPa 0,2 l/m 0 min 2 min 7 W/m 29,3 km/h (5 Bft) 95,65 %
11.12.2017 11:06 0,4 C 0,0 C -1,1 C 95 % 15 lf 980,2 hPa 0,0 l/m 0 min 2 min 7 W/m 27,0 km/h (4 Bft) 95,74 %
11.12.2017 11:08 0,4 C 0,0 C -1,1 C 95 % 15 lf 980,2 hPa 0,0 l/m 0 min 2 min 7 W/m 20,3 km/h (4 Bft) 97,87 %
11.12.2017 11:10 0,4 C 0,0 C -1,1 C 95 % 15 lf 980,1 hPa 0,0 l/m 0 min 2 min 7 W/m 24,8 km/h (4 Bft) 91,49 %
11.12.2017 11:12 0,4 C 0,0 C -1,1 C 95 % 15 lf 980,1 hPa 0,0 l/m 0 min 2 min 7 W/m 24,8 km/h (4 Bft) 93,62 %
11.12.2017 11:14 0,4 C 0,0 C -1,1 C 95 % 15 lf 980,1 hPa 0,0 l/m 0 min 2 min 7 W/m 31,5 km/h (5 Bft) 93,62 %
11.12.2017 11:16 0,4 C 0,0 C -1,1 C 95 % 15 lf 979,8 hPa 0,0 l/m 0 min 2 min 7 W/m 22,5 km/h (4 Bft) 95,65 %
11.12.2017 11:18 0,4 C 0,0 C -1,1 C 95 % 15 lf 979,7 hPa 0,2 l/m 0 min 2 min 7 W/m 22,5 km/h (4 Bft) 95,74 %
11.12.2017 11:20 0,4 C 0,0 C -1,1 C 95 % 15 lf 979,7 hPa 0,0 l/m 0 min 2 min 7 W/m 20,3 km/h (4 Bft) 93,62 %
11.12.2017 11:22 0,4 C 0,0 C -1,1 C 96 % 15 lf 979,7 hPa 0,0 l/m 0 min 2 min 7 W/m 22,5 km/h (4 Bft) 93,62 %
11.12.2017 11:24 0,4 C 0,0 C -1,1 C 96 % 15 lf 979,6 hPa 0,0 l/m 0 min 2 min 9 W/m 18,0 km/h (3 Bft) 93,62 %
11.12.2017 11:26 0,3 C 0,0 C -1,1 C 96 % 15 lf 979,7 hPa 0,0 l/m 0 min 2 min 8 W/m 29,3 km/h (5 Bft) 91,30 %
11.12.2017 11:28 0,3 C 0,0 C -1,1 C 95 % 15 lf 979,5 hPa 0,0 l/m 0 min 2 min 7 W/m 18,0 km/h (3 Bft) 93,62 %
11.12.2017 11:30 0,3 C 0,0 C -1,1 C 95 % 15 lf 979,6 hPa 0,0 l/m 0 min 2 min 7 W/m 15,8 km/h (3 Bft) 93,62 %
11.12.2017 11:32 0,3 C 0,0 C -1,1 C 95 % 15 lf 979,6 hPa 0,0 l/m 0 min 2 min 8 W/m 20,3 km/h (4 Bft) 91,49 %
11.12.2017 11:34 0,3 C 0,0 C -1,1 C 96 % 15 lf 979,7 hPa 0,0 l/m 0 min 2 min 9 W/m 22,5 km/h (4 Bft) 91,49 %
11.12.2017 11:36 0,3 C 0,0 C -1,1 C 96 % 15 lf 979,6 hPa 0,0 l/m 0 min 2 min 10 W/m 24,8 km/h (4 Bft) 93,62 %
11.12.2017 11:38 0,3 C 0,0 C -1,1 C 96 % 15 lf 979,4 hPa 0,0 l/m 0 min 2 min 11 W/m 31,5 km/h (5 Bft) 93,62 %
11.12.2017 11:40 0,3 C 0,0 C -1,1 C 96 % 15 lf 979,3 hPa 0,0 l/m 0 min 2 min 11 W/m 20,3 km/h (4 Bft) 95,65 %
11.12.2017 11:42 0,3 C 0,0 C -1,1 C 96 % 15 lf 979,3 hPa 0,2 l/m 0 min 2 min 11 W/m 20,3 km/h (4 Bft) 95,74 %
11.12.2017 11:44 0,3 C 0,0 C -1,1 C 96 % 15 lf 979,3 hPa 0,0 l/m 0 min 2 min 10 W/m 24,8 km/h (4 Bft) 95,74 %
11.12.2017 11:46 0,3 C 0,0 C -1,1 C 96 % 15 lf 979,2 hPa 0,2 l/m 0 min 2 min 10 W/m 22,5 km/h (4 Bft) 97,87 %
11.12.2017 11:48 0,3 C 0,0 C -1,1 C 96 % 15 lf 979,1 hPa 0,0 l/m 0 min 2 min 11 W/m 31,5 km/h (5 Bft) 95,74 %
11.12.2017 11:50 0,4 C 0,0 C -1,1 C 96 % 15 lf 979,0 hPa 0,0 l/m 0 min 2 min 12 W/m 31,5 km/h (5 Bft) 95,65 %
11.12.2017 11:52 0,4 C 0,0 C -1,1 C 96 % 15 lf 979,0 hPa 0,2 l/m 0 min 2 min 12 W/m 24,8 km/h (4 Bft) 93,62 %
11.12.2017 11:54 0,4 C 0,0 C -1,1 C 96 % 15 lf 978,8 hPa 0,0 l/m 0 min 2 min 12 W/m 24,8 km/h (4 Bft) 95,74 %
11.12.2017 11:56 0,4 C 0,0 C -1,1 C 96 % 15 lf 978,7 hPa 0,0 l/m 0 min 2 min 13 W/m 22,5 km/h (4 Bft) 97,87 %
11.12.2017 11:58 0,4 C 0,0 C -1,1 C 96 % 15 lf 978,5 hPa 0,2 l/m 0 min 2 min 15 W/m 29,3 km/h (5 Bft) 97,87 %
11.12.2017 12:00 0,4 C 0,0 C -1,1 C 96 % 15 lf 978,6 hPa 0,0 l/m 0 min 2 min 18 W/m 31,5 km/h (5 Bft) 97,87 %
11.12.2017 12:02 0,4 C 0,0 C -1,1 C 96 % 15 lf 978,5 hPa 0,0 l/m 0 min 2 min 19 W/m 29,3 km/h (5 Bft) 97,83 %
11.12.2017 12:04 0,4 C 0,0 C -1,1 C 96 % 15 lf 978,3 hPa 0,2 l/m 0 min 2 min 22 W/m 38,3 km/h (5 Bft) 95,74 %
11.12.2017 12:06 0,4 C 0,0 C -1,1 C 96 % 15 lf 978,1 hPa 0,0 l/m 0 min 2 min 27 W/m 31,5 km/h (5 Bft) 95,74 %
11.12.2017 12:10 0,5 C 0,6 C -1,1 C 96 % 15 lf 978,1 hPa 0,2 l/m 0 min 4 min 28 W/m 36,0 km/h (5 Bft) 95,88 %
11.12.2017 12:12 0,5 C 0,6 C -1,1 C 96 % 15 lf 978,0 hPa 0,0 l/m 0 min 2 min 25 W/m 24,8 km/h (4 Bft) 95,65 %
11.12.2017 12:14 0,5 C 0,6 C -1,1 C 96 % 15 lf 977,9 hPa 0,0 l/m 0 min 2 min 26 W/m 33,8 km/h (5 Bft) 97,87 %
11.12.2017 12:16 0,5 C 0,6 C -1,1 C 96 % 15 lf 977,6 hPa 0,2 l/m 0 min 2 min 31 W/m 33,8 km/h (5 Bft) 97,87 %
11.12.2017 12:18 0,5 C 0,6 C -1,1 C 96 % 15 lf 977,6 hPa 0,0 l/m 0 min 2 min 32 W/m 24,8 km/h (4 Bft) 93,62 %
11.12.2017 12:20 0,5 C 0,6 C -1,1 C 96 % 15 lf 977,9 hPa 0,2 l/m 0 min 2 min 31 W/m 31,5 km/h (5 Bft) 93,62 %
11.12.2017 12:22 0,5 C 0,6 C -1,1 C 96 % 15 lf 978,1 hPa 0,0 l/m 0 min 2 min 26 W/m 29,3 km/h (5 Bft) 95,74 %
11.12.2017 12:24 0,5 C 0,6 C -1,1 C 96 % 15 lf 977,9 hPa 0,0 l/m 0 min 2 min 26 W/m 33,8 km/h (5 Bft) 97,83 %
11.12.2017 12:26 0,5 C 0,6 C -1,1 C 96 % 15 lf 977,8 hPa 0,0 l/m 0 min 2 min 32 W/m 31,5 km/h (5 Bft) 97,87 %
11.12.2017 12:28 0,5 C 0,6 C -1,1 C 96 % 15 lf 977,6 hPa 0,2 l/m 0 min 2 min 35 W/m 31,5 km/h (5 Bft) 97,87 %
11.12.2017 12:30 0,5 C 0,6 C -1,1 C 96 % 15 lf 977,5 hPa 0,0 l/m 0 min 2 min 35 W/m 33,8 km/h (5 Bft) 97,87 %
11.12.2017 12:32 0,5 C 0,6 C -1,1 C 96 % 15 lf 977,6 hPa 0,0 l/m 0 min 2 min 36 W/m 38,3 km/h (5 Bft) 100,00 %
11.12.2017 12:34 0,5 C 0,6 C -1,1 C 96 % 15 lf 977,5 hPa 0,2 l/m 0 min 0 min 41 W/m 27,0 km/h (4 Bft) 100,00 %
11.12.2017 12:36 0,5 C 0,6 C -1,1 C 96 % 15 lf 977,5 hPa 0,0 l/m 0 min 0 min 43 W/m 31,5 km/h (5 Bft) 97,83 %
11.12.2017 12:38 0,5 C 0,6 C -1,1 C 97 % 15 lf 977,5 hPa 0,0 l/m 0 min 0 min 38 W/m 22,5 km/h (4 Bft) 100,00 %
11.12.2017 12:40 0,6 C 0,6 C -1,1 C 97 % 15 lf 977,7 hPa 0,0 l/m 0 min 0 min 30 W/m 29,3 km/h (5 Bft) 95,74 %
11.12.2017 12:42 0,6 C 0,6 C -1,1 C 97 % 15 lf 977,9 hPa 0,0 l/m 0 min 0 min 23 W/m 27,0 km/h (4 Bft) 100,00 %
11.12.2017 12:44 0,6 C 0,6 C -1,1 C 97 % 15 lf 978,1 hPa 0,0 l/m 0 min 0 min 22 W/m 22,5 km/h (4 Bft) 100,00 %
11.12.2017 12:46 0,6 C 0,6 C -1,1 C 97 % 15 lf 977,9 hPa 0,0 l/m 0 min 0 min 22 W/m 24,8 km/h (4 Bft) 100,00 %
11.12.2017 12:48 0,6 C 0,6 C -1,1 C 97 % 15 lf 977,9 hPa 0,2 l/m 0 min 0 min 25 W/m 31,5 km/h (5 Bft) 97,83 %
11.12.2017 12:50 0,6 C 0,6 C -1,1 C 97 % 15 lf 977,9 hPa 0,0 l/m 0 min 0 min 23 W/m 29,3 km/h (5 Bft) 95,74 %
11.12.2017 12:52 0,6 C 0,6 C -1,1 C 97 % 15 lf 977,9 hPa 0,0 l/m 0 min 0 min 22 W/m 20,3 km/h (4 Bft) 97,87 %
11.12.2017 12:54 0,6 C 0,6 C -1,1 C 97 % 15 lf 977,7 hPa 0,0 l/m 0 min 0 min 26 W/m 29,3 km/h (5 Bft) 100,00 %
11.12.2017 12:56 0,6 C 0,6 C -1,1 C 97 % 15 lf 977,7 hPa 0,0 l/m 0 min 0 min 32 W/m 31,5 km/h (5 Bft) 97,87 %
11.12.2017 12:58 0,6 C 0,6 C -1,1 C 97 % 15 lf 977,5 hPa 0,2 l/m 0 min 0 min 34 W/m 31,5 km/h (5 Bft) 97,83 %
11.12.2017 13:00 0,6 C 0,6 C -1,1 C 97 % 15 lf 977,3 hPa 0,0 l/m 0 min 0 min 41 W/m 27,0 km/h (4 Bft) 100,00 %
11.12.2017 13:02 0,6 C 0,6 C -1,1 C 97 % 15 lf 977,2 hPa 0,0 l/m 0 min 0 min 41 W/m 29,3 km/h (5 Bft) 97,83 %
11.12.2017 13:04 0,6 C 0,6 C -1,1 C 97 % 15 lf 976,9 hPa 0,0 l/m 0 min 2 min 34 W/m 38,3 km/h (5 Bft) 97,87 %
11.12.2017 13:06 0,6 C 0,6 C -1,1 C 97 % 15 lf 976,8 hPa 0,0 l/m 0 min 2 min 34 W/m 38,3 km/h (5 Bft) 97,87 %
11.12.2017 13:08 0,6 C 0,6 C -1,1 C 97 % 15 lf 976,5 hPa 0,0 l/m 0 min 2 min 31 W/m 40,6 km/h (6 Bft) 95,74 %
11.12.2017 13:10 0,6 C 0,6 C -1,1 C 97 % 15 lf 976,4 hPa 0,0 l/m 0 min 2 min 30 W/m 47,3 km/h (6 Bft) 97,87 %
11.12.2017 13:12 0,6 C 0,6 C -1,1 C 97 % 15 lf 976,3 hPa 0,0 l/m 0 min 2 min 28 W/m 40,6 km/h (6 Bft) 97,87 %
11.12.2017 13:14 0,5 C 0,6 C -1,1 C 97 % 15 lf 976,2 hPa 0,2 l/m 0 min 0 min 28 W/m 27,0 km/h (4 Bft) 97,83 %
11.12.2017 13:16 0,5 C 0,6 C -1,1 C 97 % 15 lf 976,1 hPa 0,0 l/m 0 min 0 min 29 W/m 31,5 km/h (5 Bft) 98,31 %
11.12.2017 13:18 0,5 C 0,6 C -1,1 C 97 % 15 lf 975,8 hPa 0,0 l/m 0 min 0 min 30 W/m 49,6 km/h (6 Bft) 97,14 %
11.12.2017 13:20 0,5 C 0,6 C -1,1 C 97 % 15 lf 976,0 hPa 0,0 l/m 0 min 0 min 27 W/m 38,3 km/h (5 Bft) 94,92 %
11.12.2017 13:22 0,5 C 0,6 C -1,1 C 97 % 15 lf 976,4 hPa 0,0 l/m 0 min 0 min 21 W/m 29,3 km/h (5 Bft) 95,65 %
11.12.2017 13:24 0,5 C 0,6 C -1,1 C 97 % 15 lf 976,9 hPa 0,0 l/m 0 min 0 min 14 W/m 24,8 km/h (4 Bft) 97,22 %
11.12.2017 13:26 0,5 C 0,6 C -1,1 C 97 % 15 lf 976,9 hPa 0,2 l/m 0 min 0 min 13 W/m 20,3 km/h (4 Bft) 95,83 %
11.12.2017 13:28 0,5 C 0,6 C -1,1 C 97 % 15 lf 977,0 hPa 0,0 l/m 0 min 0 min 12 W/m 27,0 km/h (4 Bft) 95,65 %
11.12.2017 13:30 0,5 C 0,6 C -1,1 C 97 % 15 lf 977,1 hPa 0,0 l/m 0 min 0 min 12 W/m 20,3 km/h (4 Bft) 95,74 %
11.12.2017 13:32 0,5 C 0,6 C -1,1 C 97 % 15 lf 977,2 hPa 0,0 l/m 0 min 0 min 12 W/m 20,3 km/h (4 Bft) 91,49 %
11.12.2017 13:34 0,5 C 0,6 C -1,1 C 97 % 15 lf 977,2 hPa 0,0 l/m 0 min 0 min 12 W/m 22,5 km/h (4 Bft) 95,74 %
11.12.2017 13:36 0,5 C 0,6 C -1,1 C 97 % 15 lf 976,9 hPa 0,0 l/m 0 min 0 min 16 W/m 31,5 km/h (5 Bft) 95,74 %
11.12.2017 13:38 0,5 C 0,6 C -1,1 C 97 % 15 lf 976,6 hPa 0,0 l/m 0 min 0 min 18 W/m 29,3 km/h (5 Bft) 93,62 %
11.12.2017 13:40 0,5 C 0,6 C -1,1 C 97 % 15 lf 976,8 hPa 0,0 l/m 0 min 0 min 16 W/m 24,8 km/h (4 Bft) 97,83 %
11.12.2017 13:42 0,5 C 0,6 C -1,1 C 97 % 15 lf 976,9 hPa 0,0 l/m 0 min 0 min 15 W/m 22,5 km/h (4 Bft) 93,62 %
11.12.2017 13:44 0,5 C 0,6 C -1,1 C 97 % 15 lf 976,9 hPa 0,0 l/m 0 min 0 min 20 W/m 20,3 km/h (4 Bft) 93,62 %
11.12.2017 13:46 0,5 C 0,6 C -1,1 C 97 % 15 lf 976,9 hPa 0,0 l/m 0 min 0 min 22 W/m 31,5 km/h (5 Bft) 95,74 %
11.12.2017 13:48 0,5 C 0,6 C -0,6 C 97 % 15 lf 976,6 hPa 0,0 l/m 0 min 0 min 25 W/m 38,3 km/h (5 Bft) 93,62 %
11.12.2017 13:50 0,5 C 0,6 C -0,6 C 97 % 15 lf 976,2 hPa 0,0 l/m 0 min 0 min 25 W/m 29,3 km/h (5 Bft) 93,62 %
11.12.2017 13:52 0,5 C 0,6 C -0,6 C 97 % 15 lf 976,1 hPa 0,2 l/m 0 min 0 min 26 W/m 24,8 km/h (4 Bft) 95,65 %
11.12.2017 13:54 0,5 C 0,6 C -0,6 C 97 % 15 lf 976,0 hPa 0,0 l/m 0 min 0 min 25 W/m 29,3 km/h (5 Bft) 95,74 %
11.12.2017 13:56 0,5 C 0,6 C -0,6 C 97 % 15 lf 975,9 hPa 0,0 l/m 0 min 0 min 24 W/m 29,3 km/h (5 Bft) 93,62 %
11.12.2017 13:58 0,5 C 0,6 C -0,6 C 97 % 15 lf 975,8 hPa 0,0 l/m 0 min 0 min 29 W/m 22,5 km/h (4 Bft) 93,62 %
11.12.2017 14:00 0,5 C 0,6 C -0,6 C 97 % 15 lf 975,8 hPa 0,0 l/m 0 min 0 min 29 W/m 24,8 km/h (4 Bft) 93,62 %
11.12.2017 14:02 0,5 C 0,6 C -0,6 C 97 % 15 lf 975,8 hPa 0,0 l/m 0 min 0 min 28 W/m 27,0 km/h (4 Bft) 93,62 %
11.12.2017 14:04 0,5 C 0,6 C -0,6 C 97 % 15 lf 976,0 hPa 0,0 l/m 0 min 0 min 25 W/m 29,3 km/h (5 Bft) 93,48 %
11.12.2017 14:06 0,5 C 0,6 C -0,6 C 97 % 15 lf 976,1 hPa 0,0 l/m 0 min 0 min 21 W/m 22,5 km/h (4 Bft) 95,74 %
11.12.2017 14:08 0,5 C 0,6 C -0,6 C 97 % 15 lf 976,3 hPa 0,0 l/m 0 min 0 min 19 W/m 22,5 km/h (4 Bft) 93,62 %
11.12.2017 14:10 0,6 C 0,6 C -0,6 C 97 % 15 lf 976,1 hPa 0,2 l/m 0 min 0 min 19 W/m 31,5 km/h (5 Bft) 95,74 %
11.12.2017 14:12 0,6 C 0,6 C -0,6 C 97 % 15 lf 976,0 hPa 0,0 l/m 0 min 0 min 16 W/m 31,5 km/h (5 Bft) 93,62 %
11.12.2017 14:14 0,6 C 0,6 C -0,6 C 97 % 15 lf 976,1 hPa 0,0 l/m 0 min 0 min 13 W/m 27,0 km/h (4 Bft) 95,74 %
11.12.2017 14:16 0,6 C 0,6 C -0,6 C 97 % 15 lf 976,1 hPa 0,0 l/m 0 min 0 min 12 W/m 29,3 km/h (5 Bft) 93,48 %
11.12.2017 14:18 0,6 C 0,6 C -0,6 C 97 % 15 lf 976,1 hPa 0,0 l/m 0 min 0 min 12 W/m 27,0 km/h (4 Bft) 97,87 %
11.12.2017 14:20 0,6 C 0,6 C -0,6 C 97 % 15 lf 976,2 hPa 0,0 l/m 0 min 0 min 11 W/m 29,3 km/h (5 Bft) 97,87 %
11.12.2017 14:22 0,6 C 0,6 C -0,6 C 97 % 15 lf 976,3 hPa 0,0 l/m 0 min 0 min 9 W/m 18,0 km/h (3 Bft) 91,49 %
11.12.2017 14:24 0,6 C 0,6 C -0,6 C 97 % 15 lf 976,3 hPa 0,0 l/m 0 min 0 min 7 W/m 18,0 km/h (3 Bft) 93,62 %
11.12.2017 14:26 0,6 C 0,6 C -0,6 C 97 % 15 lf 976,4 hPa 0,0 l/m 0 min 0 min 7 W/m 22,5 km/h (4 Bft) 97,83 %
11.12.2017 14:28 0,6 C 0,6 C -0,6 C 97 % 15 lf 976,5 hPa 0,0 l/m 0 min 2 min 9 W/m 22,5 km/h (4 Bft) 100,00 %
11.12.2017 14:30 0,7 C 0,6 C -0,6 C 97 % 15 lf 976,4 hPa 0,2 l/m 0 min 2 min 11 W/m 24,8 km/h (4 Bft) 95,74 %
11.12.2017 14:32 0,7 C 0,6 C -0,6 C 97 % 15 lf 976,3 hPa 0,2 l/m 0 min 2 min 11 W/m 15,8 km/h (3 Bft) 95,74 %
11.12.2017 14:34 0,7 C 0,6 C -0,6 C 97 % 15 lf 976,0 hPa 0,0 l/m 0 min 2 min 14 W/m 20,3 km/h (4 Bft) 100,00 %
11.12.2017 14:36 0,7 C 0,6 C -0,6 C 97 % 15 lf 975,9 hPa 0,0 l/m 0 min 2 min 23 W/m 22,5 km/h (4 Bft) 97,87 %
11.12.2017 14:38 0,7 C 0,6 C -0,6 C 97 % 15 lf 975,8 hPa 0,2 l/m 0 min 2 min 23 W/m 24,8 km/h (4 Bft) 100,00 %
11.12.2017 14:40 0,7 C 0,6 C -0,6 C 97 % 15 lf 975,9 hPa 0,0 l/m 0 min 0 min 19 W/m 24,8 km/h (4 Bft) 100,00 %
11.12.2017 14:42 0,7 C 0,6 C -0,6 C 97 % 15 lf 975,9 hPa 0,0 l/m 0 min 0 min 19 W/m 22,5 km/h (4 Bft) 100,00 %
11.12.2017 14:44 0,7 C 0,6 C -0,6 C 97 % 15 lf 975,9 hPa 0,0 l/m 0 min 0 min 19 W/m 20,3 km/h (4 Bft) 97,87 %
11.12.2017 14:46 0,7 C 0,6 C -0,6 C 97 % 15 lf 975,7 hPa 0,0 l/m 0 min 0 min 20 W/m 15,8 km/h (3 Bft) 93,62 %
11.12.2017 14:48 0,7 C 0,6 C -0,6 C 97 % 15 lf 975,6 hPa 0,2 l/m 0 min 0 min 24 W/m 15,8 km/h (3 Bft) 100,00 %
11.12.2017 14:50 0,7 C 0,6 C -0,6 C 97 % 15 lf 975,6 hPa 0,0 l/m 0 min 0 min 25 W/m 20,3 km/h (4 Bft) 100,00 %
11.12.2017 14:52 0,8 C 0,6 C -0,6 C 97 % 15 lf 975,6 hPa 0,0 l/m 0 min 0 min 25 W/m 18,0 km/h (3 Bft) 97,87 %
11.12.2017 14:54 0,8 C 0,6 C -0,6 C 97 % 15 lf 975,4 hPa 0,0 l/m 0 min 0 min 25 W/m 20,3 km/h (4 Bft) 97,87 %
11.12.2017 14:56 0,8 C 0,6 C -0,6 C 97 % 15 lf 975,3 hPa 0,0 l/m 0 min 0 min 27 W/m 15,8 km/h (3 Bft) 100,00 %
11.12.2017 14:58 0,8 C 0,6 C 0,0 C 97 % 15 lf 975,3 hPa 0,0 l/m 0 min 0 min 31 W/m 22,5 km/h (4 Bft) 95,74 %
11.12.2017 15:00 0,8 C 1,1 C 0,0 C 97 % 15 lf 975,3 hPa 0,0 l/m 0 min 0 min 33 W/m 20,3 km/h (4 Bft) 97,87 %
11.12.2017 15:02 0,8 C 1,1 C 0,0 C 97 % 15 lf 975,2 hPa 0,0 l/m 0 min 0 min 34 W/m 22,5 km/h (4 Bft) 95,65 %
11.12.2017 15:04 0,8 C 1,1 C 0,0 C 97 % 15 lf 975,1 hPa 0,0 l/m 0 min 0 min 33 W/m 20,3 km/h (4 Bft) 97,87 %
11.12.2017 15:06 0,8 C 1,1 C 0,0 C 97 % 15 lf 975,1 hPa 0,0 l/m 0 min 0 min 34 W/m 20,3 km/h (4 Bft) 97,87 %
11.12.2017 15:08 0,8 C 1,1 C 0,0 C 97 % 15 lf 975,2 hPa 0,0 l/m 0 min 0 min 36 W/m 15,8 km/h (3 Bft) 95,74 %
11.12.2017 15:10 0,9 C 1,1 C 0,0 C 97 % 15 lf 975,4 hPa 0,0 l/m 0 min 0 min 30 W/m 20,3 km/h (4 Bft) 97,87 %
11.12.2017 15:12 0,9 C 1,1 C 0,0 C 97 % 15 lf 975,5 hPa 0,2 l/m 0 min 0 min 26 W/m 18,0 km/h (3 Bft) 97,87 %
11.12.2017 15:14 0,9 C 1,1 C 0,0 C 97 % 15 lf 975,4 hPa 0,0 l/m 0 min 0 min 25 W/m 20,3 km/h (4 Bft) 97,83 %
11.12.2017 15:16 0,9 C 1,1 C 0,0 C 97 % 15 lf 975,5 hPa 0,0 l/m 0 min 0 min 23 W/m 20,3 km/h (4 Bft) 97,87 %
11.12.2017 15:18 0,9 C 1,1 C 0,0 C 97 % 15 lf 975,7 hPa 0,0 l/m 0 min 0 min 22 W/m 22,5 km/h (4 Bft) 97,87 %
11.12.2017 15:20 0,9 C 1,1 C 0,0 C 97 % 15 lf 975,4 hPa 0,0 l/m 0 min 0 min 31 W/m 15,8 km/h (3 Bft) 95,74 %
11.12.2017 15:22 0,9 C 1,1 C 0,0 C 97 % 15 lf 975,4 hPa 0,0 l/m 0 min 0 min 33 W/m 13,5 km/h (3 Bft) 97,87 %
11.12.2017 15:24 0,9 C 1,1 C 0,0 C 97 % 15 lf 975,4 hPa 0,0 l/m 0 min 0 min 28 W/m 18,0 km/h (3 Bft) 97,87 %
11.12.2017 15:26 0,9 C 1,1 C 0,0 C 97 % 15 lf 975,3 hPa 0,0 l/m 0 min 0 min 20 W/m 11,3 km/h (2 Bft) 97,83 %
11.12.2017 15:28 1,0 C 1,1 C 0,0 C 97 % 15 lf 975,2 hPa 0,0 l/m 0 min 0 min 22 W/m 18,0 km/h (3 Bft) 93,62 %
11.12.2017 15:30 1,0 C 1,1 C 0,0 C 97 % 15 lf 975,1 hPa 0,2 l/m 0 min 0 min 25 W/m 15,8 km/h (3 Bft) 97,87 %
11.12.2017 15:32 1,0 C 1,1 C 0,0 C 97 % 15 lf 975,3 hPa 0,0 l/m 0 min 0 min 22 W/m 13,5 km/h (3 Bft) 91,49 %
11.12.2017 15:34 1,0 C 1,1 C 0,0 C 97 % 15 lf 975,3 hPa 0,0 l/m 0 min 0 min 23 W/m 6,8 km/h (2 Bft) 97,87 %
11.12.2017 15:36 1,0 C 1,1 C 0,0 C 98 % 15 lf 975,2 hPa 0,0 l/m 0 min 0 min 25 W/m 6,8 km/h (2 Bft) 97,83 %
11.12.2017 15:38 1,0 C 1,1 C 0,0 C 98 % 15 lf 975,1 hPa 0,0 l/m 0 min 0 min 23 W/m 20,3 km/h (4 Bft) 97,87 %
11.12.2017 15:40 1,0 C 1,1 C 0,0 C 98 % 15 lf 975,0 hPa 0,0 l/m 0 min 0 min 19 W/m 15,8 km/h (3 Bft) 97,87 %
11.12.2017 15:42 1,0 C 1,1 C 0,0 C 98 % 15 lf 975,0 hPa 0,0 l/m 0 min 0 min 18 W/m 13,5 km/h (3 Bft) 97,87 %
11.12.2017 15:44 1,0 C 1,1 C 0,0 C 98 % 15 lf 975,0 hPa 0,0 l/m 0 min 0 min 18 W/m 15,8 km/h (3 Bft) 95,74 %
11.12.2017 15:46 1,0 C 1,1 C 0,0 C 98 % 15 lf 975,0 hPa 0,0 l/m 0 min 0 min 18 W/m 13,5 km/h (3 Bft) 97,87 %
11.12.2017 15:48 1,0 C 1,1 C 0,0 C 98 % 15 lf 974,9 hPa 0,0 l/m 0 min 0 min 18 W/m 6,8 km/h (2 Bft) 97,83 %
11.12.2017 15:50 1,0 C 1,1 C 0,0 C 98 % 15 lf 975,0 hPa 0,0 l/m 0 min 0 min 15 W/m 13,5 km/h (3 Bft) 97,87 %
11.12.2017 15:52 1,0 C 1,1 C 0,0 C 98 % 15 lf 975,0 hPa 0,0 l/m 0 min 0 min 14 W/m 15,8 km/h (3 Bft) 93,62 %
11.12.2017 15:54 1,0 C 1,1 C 0,0 C 98 % 15 lf 975,0 hPa 0,0 l/m 0 min 0 min 14 W/m 11,3 km/h (2 Bft) 95,74 %
11.12.2017 15:56 1,0 C 1,1 C 0,0 C 98 % 15 lf 975,1 hPa 0,0 l/m 0 min 0 min 13 W/m 18,0 km/h (3 Bft) 97,87 %
11.12.2017 15:58 1,0 C 1,1 C 0,0 C 98 % 15 lf 975,0 hPa 0,0 l/m 0 min 0 min 12 W/m 15,8 km/h (3 Bft) 97,87 %
11.12.2017 16:00 1,1 C 1,1 C 0,0 C 98 % 15 lf 974,8 hPa 0,0 l/m 0 min 0 min 12 W/m 6,8 km/h (2 Bft) 91,30 %
11.12.2017 16:02 1,0 C 1,1 C 0,0 C 98 % 15 lf 974,7 hPa 0,0 l/m 0 min 0 min 11 W/m 11,3 km/h (2 Bft) 97,87 %
11.12.2017 16:04 1,0 C 1,1 C 0,0 C 98 % 15 lf 974,8 hPa 0,2 l/m 0 min 0 min 10 W/m 18,0 km/h (3 Bft) 97,87 %
11.12.2017 16:06 1,1 C 1,1 C 0,0 C 98 % 15 lf 975,0 hPa 0,0 l/m 0 min 0 min 8 W/m 15,8 km/h (3 Bft) 97,87 %
11.12.2017 16:08 1,1 C 1,1 C 0,0 C 98 % 15 lf 975,0 hPa 0,0 l/m 0 min 0 min 7 W/m 9,0 km/h (2 Bft) 97,87 %
11.12.2017 16:10 1,1 C 1,1 C 0,0 C 98 % 15 lf 975,0 hPa 0,0 l/m 0 min 0 min 6 W/m 6,8 km/h (2 Bft) 97,87 %
11.12.2017 16:12 1,1 C 1,1 C 0,0 C 98 % 15 lf 975,0 hPa 0,0 l/m 0 min 0 min 5 W/m 2,3 km/h (1 Bft) 97,83 %
11.12.2017 16:14 1,1 C 1,1 C 0,0 C 98 % 15 lf 975,0 hPa 0,0 l/m 0 min 0 min 5 W/m 9,0 km/h (2 Bft) 95,74 %
11.12.2017 16:16 1,1 C 1,1 C 0,0 C 98 % 15 lf 975,0 hPa 0,0 l/m 0 min 0 min 5 W/m 6,8 km/h (2 Bft) 95,74 %
11.12.2017 16:18 1,1 C 1,1 C 0,0 C 98 % 15 lf 975,1 hPa 0,0 l/m 0 min 0 min 4 W/m 6,8 km/h (2 Bft) 95,74 %
11.12.2017 16:20 1,1 C 1,1 C 0,0 C 98 % 15 lf 975,1 hPa 0,0 l/m 0 min 0 min 0 W/m 6,8 km/h (2 Bft) 95,74 %
11.12.2017 16:22 1,1 C 1,1 C 0,0 C 98 % 15 lf 975,1 hPa 0,0 l/m 0 min 0 min 0 W/m 9,0 km/h (2 Bft) 95,74 %
11.12.2017 16:24 1,1 C 1,1 C 0,0 C 97 % 15 lf 975,1 hPa 0,0 l/m 0 min 0 min 3 W/m 6,8 km/h (2 Bft) 95,65 %
11.12.2017 16:26 1,1 C 1,1 C 0,0 C 98 % 15 lf 975,3 hPa 0,0 l/m 0 min 0 min 5 W/m 9,0 km/h (2 Bft) 91,49 %
11.12.2017 16:28 1,1 C 1,1 C 0,0 C 98 % 15 lf 975,4 hPa 0,0 l/m 0 min 0 min 5 W/m 6,8 km/h (2 Bft) 91,49 %
11.12.2017 16:30 1,1 C 1,1 C 0,0 C 98 % 15 lf 975,3 hPa 0,0 l/m 0 min 0 min 5 W/m 6,8 km/h (2 Bft) 93,62 %
11.12.2017 16:32 1,1 C 1,1 C 0,0 C 98 % 15 lf 975,3 hPa 0,0 l/m 0 min 0 min 1 W/m 6,8 km/h (2 Bft) 93,62 %
11.12.2017 16:34 1,1 C 1,1 C 0,0 C 98 % 15 lf 975,3 hPa 0,0 l/m 0 min 0 min 0 W/m 4,5 km/h (1 Bft) 93,62 %
11.12.2017 16:36 1,1 C 1,1 C -0,6 C 98 % 15 lf 975,3 hPa 0,0 l/m 0 min 0 min 0 W/m 4,5 km/h (1 Bft) 91,30 %
11.12.2017 16:38 1,1 C 1,1 C 0,0 C 98 % 15 lf 975,2 hPa 0,0 l/m 0 min 0 min 0 W/m 9,0 km/h (2 Bft) 91,49 %
11.12.2017 16:40 1,1 C 1,1 C -0,6 C 98 % 15 lf 975,2 hPa 0,0 l/m 0 min 0 min 0 W/m 4,5 km/h (1 Bft) 95,74 %
11.12.2017 16:42 1,1 C 1,1 C -0,6 C 98 % 15 lf 975,2 hPa 0,0 l/m 0 min 0 min 0 W/m 6,8 km/h (2 Bft) 97,87 %
11.12.2017 16:44 1,1 C 1,1 C -0,6 C 98 % 15 lf 975,3 hPa 0,0 l/m 0 min 0 min 0 W/m 6,8 km/h (2 Bft) 87,23 %
11.12.2017 16:46 1,1 C 1,1 C -0,6 C 98 % 15 lf 975,4 hPa 0,0 l/m 0 min 0 min 0 W/m 4,5 km/h (1 Bft) 93,48 %
11.12.2017 16:48 1,1 C 1,1 C -0,6 C 98 % 15 lf 975,4 hPa 0,0 l/m 0 min 0 min 0 W/m 2,3 km/h (1 Bft) 95,74 %
11.12.2017 16:50 1,1 C 1,1 C -0,6 C 98 % 15 lf 975,3 hPa 0,0 l/m 0 min 0 min 0 W/m 2,3 km/h (1 Bft) 95,74 %
11.12.2017 16:52 1,1 C 1,1 C 0,0 C 98 % 15 lf 975,2 hPa 0,2 l/m 0 min 0 min 0 W/m 4,5 km/h (1 Bft) 89,36 %
11.12.2017 16:54 1,1 C 1,1 C 0,0 C 98 % 15 lf 975,3 hPa 0,0 l/m 0 min 0 min 0 W/m 2,3 km/h (1 Bft) 91,49 %
11.12.2017 16:56 1,1 C 1,1 C -0,6 C 98 % 15 lf 975,4 hPa 0,0 l/m 0 min 0 min 0 W/m 4,5 km/h (1 Bft) 91,49 %
11.12.2017 16:58 1,1 C 1,1 C -0,6 C 98 % 15 lf 975,7 hPa 0,0 l/m 0 min 0 min 0 W/m 2,3 km/h (1 Bft) 93,48 %
11.12.2017 17:00 1,1 C 1,1 C -0,6 C 98 % 15 lf 975,7 hPa 0,0 l/m 0 min 0 min 0 W/m 0,0 km/h (0 Bft) 91,49 %
11.12.2017 17:02 1,1 C 1,1 C -0,6 C 98 % 15 lf 975,7 hPa 0,0 l/m 0 min 0 min 0 W/m 2,3 km/h (1 Bft) 93,62 %
11.12.2017 17:04 1,1 C 1,1 C -0,6 C 98 % 15 lf 975,6 hPa 0,0 l/m 0 min 0 min 0 W/m 2,3 km/h (1 Bft) 93,62 %
11.12.2017 17:06 1,1 C 1,1 C 0,0 C 98 % 15 lf 975,7 hPa 0,0 l/m 0 min 0 min 0 W/m 2,3 km/h (1 Bft) 91,49 %
11.12.2017 17:08 1,1 C 1,1 C -0,6 C 98 % 15 lf 975,6 hPa 0,0 l/m 0 min 0 min 0 W/m 2,3 km/h (1 Bft) 93,62 %
11.12.2017 17:10 1,1 C 1,1 C 0,0 C 98 % 15 lf 975,6 hPa 0,0 l/m 0 min 0 min 0 W/m 2,3 km/h (1 Bft) 95,65 %
11.12.2017 17:12 1,1 C 1,1 C 0,0 C 98 % 15 lf 975,5 hPa 0,0 l/m 0 min 0 min 0 W/m 4,5 km/h (1 Bft) 95,74 %
11.12.2017 17:14 1,1 C 1,1 C 0,0 C 98 % 15 lf 975,6 hPa 0,0 l/m 0 min 0 min 0 W/m 2,3 km/h (1 Bft) 95,74 %
11.12.2017 17:16 1,1 C 1,1 C 0,0 C 98 % 15 lf 975,5 hPa 0,0 l/m 0 min 0 min 0 W/m 2,3 km/h (1 Bft) 97,87 %
11.12.2017 17:18 1,1 C 1,1 C 0,0 C 98 % 15 lf 975,4 hPa 0,0 l/m 0 min 0 min 0 W/m 4,5 km/h (1 Bft) 97,87 %
11.12.2017 17:20 1,1 C 1,1 C 0,0 C 98 % 15 lf 975,4 hPa 0,0 l/m 0 min 0 min 0 W/m 4,5 km/h (1 Bft) 93,62 %
11.12.2017 17:22 1,1 C 1,1 C 0,0 C 98 % 15 lf 975,6 hPa 0,0 l/m 0 min 0 min 0 W/m 2,3 km/h (1 Bft) 97,83 %
11.12.2017 17:24 1,1 C 1,1 C 0,0 C 98 % 15 lf 975,5 hPa 0,0 l/m 0 min 0 min 0 W/m 4,5 km/h (1 Bft) 95,74 %
11.12.2017 17:26 1,1 C 1,1 C 0,0 C 98 % 15 lf 975,6 hPa 0,0 l/m 0 min 0 min 0 W/m 2,3 km/h (1 Bft) 93,62 %
11.12.2017 17:28 1,1 C 1,1 C 0,0 C 98 % 15 lf 975,7 hPa 0,0 l/m 0 min 0 min 0 W/m 2,3 km/h (1 Bft) 97,87 %
11.12.2017 17:30 1,1 C 1,1 C 0,0 C 98 % 15 lf 975,7 hPa 0,0 l/m 0 min 0 min 0 W/m 4,5 km/h (1 Bft) 100,00 %
11.12.2017 17:32 1,1 C 1,1 C 0,0 C 98 % 15 lf 975,8 hPa 0,0 l/m 0 min 0 min 0 W/m 4,5 km/h (1 Bft) 97,87 %
11.12.2017 17:34 1,1 C 1,1 C 0,0 C 98 % 15 lf 975,8 hPa 0,0 l/m 0 min 2 min 0 W/m 4,5 km/h (1 Bft) 97,83 %
11.12.2017 17:36 1,1 C 1,1 C 0,0 C 98 % 15 lf 975,7 hPa 0,0 l/m 0 min 0 min 0 W/m 4,5 km/h (1 Bft) 95,74 %
11.12.2017 17:38 1,1 C 1,1 C 0,0 C 98 % 15 lf 975,8 hPa 0,0 l/m 0 min 2 min 0 W/m 2,3 km/h (1 Bft) 100,00 %
11.12.2017 17:40 1,1 C 1,1 C 0,0 C 98 % 15 lf 975,8 hPa 0,0 l/m 0 min 0 min 0 W/m 0,0 km/h (0 Bft) 100,00 %
11.12.2017 17:42 1,1 C 1,1 C 0,0 C 98 % 15 lf 975,7 hPa 0,0 l/m 0 min 2 min 0 W/m 0,0 km/h (0 Bft) 100,00 %
11.12.2017 17:44 1,1 C 1,1 C 0,0 C 98 % 15 lf 975,6 hPa 0,0 l/m 0 min 0 min 0 W/m 2,3 km/h (1 Bft) 97,83 %
11.12.2017 17:46 1,1 C 1,1 C 0,0 C 98 % 15 lf 975,5 hPa 0,0 l/m 0 min 0 min 0 W/m 2,3 km/h (1 Bft) 100,00 %
11.12.2017 17:48 1,1 C 1,1 C 0,0 C 98 % 15 lf 975,7 hPa 0,0 l/m 0 min 0 min 0 W/m 0,0 km/h (0 Bft) 97,87 %
11.12.2017 17:50 1,1 C 1,1 C 0,0 C 98 % 15 lf 975,7 hPa 0,0 l/m 0 min 0 min 0 W/m 0,0 km/h (0 Bft) 100,00 %
11.12.2017 17:52 1,1 C 1,1 C 0,0 C 98 % 15 lf 975,7 hPa 0,0 l/m 0 min 0 min 0 W/m 0,0 km/h (0 Bft) 97,87 %
11.12.2017 17:54 1,1 C 1,1 C 0,0 C 98 % 15 lf 975,8 hPa 0,0 l/m 0 min 0 min 0 W/m 0,0 km/h (0 Bft) 97,87 %
11.12.2017 17:56 1,1 C 1,1 C 0,0 C 98 % 15 lf 975,7 hPa 0,2 l/m 0 min 0 min 0 W/m 0,0 km/h (0 Bft) 97,83 %
11.12.2017 17:58 1,2 C 1,1 C 0,0 C 98 % 15 lf 975,7 hPa 0,0 l/m 0 min 0 min 0 W/m 0,0 km/h (0 Bft) 97,87 %
11.12.2017 18:00 1,2 C 1,1 C 0,0 C 98 % 15 lf 975,7 hPa 0,0 l/m 0 min 0 min 0 W/m 0,0 km/h (0 Bft) 91,49 %
11.12.2017 18:02 1,2 C 1,1 C 0,0 C 98 % 15 lf 975,7 hPa 0,0 l/m 0 min 0 min 0 W/m 0,0 km/h (0 Bft) 97,87 %
11.12.2017 18:04 1,2 C 1,1 C 0,0 C 98 % 15 lf 975,8 hPa 0,0 l/m 0 min 0 min 0 W/m 4,5 km/h (1 Bft) 100,00 %
11.12.2017 18:06 1,2 C 1,1 C 0,0 C 98 % 15 lf 975,7 hPa 0,0 l/m 0 min 0 min 0 W/m 2,3 km/h (1 Bft) 100,00 %
11.12.2017 18:10 1,2 C 1,1 C 0,0 C 98 % 15 lf 975,7 hPa 0,0 l/m 0 min 0 min 0 W/m 0,0 km/h (0 Bft) 98,92 %
11.12.2017 18:12 1,2 C 1,1 C 0,0 C 98 % 15 lf 975,7 hPa 0,0 l/m 0 min 0 min 0 W/m 0,0 km/h (0 Bft) 97,87 %
11.12.2017 18:14 1,2 C 1,1 C 0,0 C 98 % 15 lf 975,7 hPa 0,0 l/m 0 min 0 min 0 W/m 0,0 km/h (0 Bft) 97,87 %
11.12.2017 18:16 1,2 C 1,1 C 0,0 C 98 % 15 lf 975,8 hPa 0,0 l/m 0 min 0 min 0 W/m 0,0 km/h (0 Bft) 93,62 %
11.12.2017 18:18 1,2 C 1,1 C 0,0 C 98 % 15 lf 975,7 hPa 0,0 l/m 0 min 0 min 0 W/m 0,0 km/h (0 Bft) 100,00 %
11.12.2017 18:20 1,2 C 1,1 C 0,0 C 98 % 15 lf 975,7 hPa 0,0 l/m 0 min 0 min 0 W/m 0,0 km/h (0 Bft) 100,00 %
11.12.2017 18:22 1,2 C 1,1 C 0,0 C 98 % 15 lf 975,7 hPa 0,0 l/m 0 min 0 min 0 W/m 0,0 km/h (0 Bft) 95,74 %
11.12.2017 18:24 1,2 C 1,1 C 0,0 C 98 % 15 lf 975,7 hPa 0,0 l/m 0 min 0 min 0 W/m 0,0 km/h (0 Bft) 97,87 %
11.12.2017 18:26 1,2 C 1,1 C 0,0 C 98 % 15 lf 975,8 hPa 0,0 l/m 0 min 0 min 0 W/m 0,0 km/h (0 Bft) 100,00 %
11.12.2017 18:28 1,2 C 1,1 C 0,0 C 98 % 15 lf 975,7 hPa 0,0 l/m 0 min 0 min 0 W/m 0,0 km/h (0 Bft) 100,00 %
11.12.2017 18:30 1,2 C 1,1 C 0,0 C 98 % 15 lf 975,7 hPa 0,0 l/m 0 min 0 min 0 W/m 0,0 km/h (0 Bft) 100,00 %
11.12.2017 18:32 1,2 C 1,1 C 0,0 C 98 % 15 lf 975,8 hPa 0,0 l/m 0 min 0 min 0 W/m 0,0 km/h (0 Bft) 94,44 %
11.12.2017 18:34 1,2 C 1,7 C 0,0 C 98 % 15 lf 975,7 hPa 0,0 l/m 0 min 0 min 0 W/m 0,0 km/h (0 Bft) 100,00 %
11.12.2017 18:36 1,3 C 1,1 C 0,0 C 98 % 15 lf 975,7 hPa 0,0 l/m 0 min 0 min 0 W/m 0,0 km/h (0 Bft) 97,22 %
11.12.2017 18:38 1,3 C 1,1 C 0,0 C 98 % 15 lf 975,8 hPa 0,0 l/m 0 min 0 min 0 W/m 0,0 km/h (0 Bft) 98,31 %
11.12.2017 18:40 1,3 C 1,1 C 0,0 C 98 % 15 lf 975,8 hPa 0,0 l/m 0 min 0 min 0 W/m 0,0 km/h (0 Bft) 97,87 %
11.12.2017 18:42 1,3 C 1,1 C 0,0 C 98 % 15 lf 975,9 hPa 0,0 l/m 0 min 0 min 0 W/m 0,0 km/h (0 Bft) 97,83 %
11.12.2017 18:44 1,3 C 1,1 C 0,0 C 98 % 15 lf 975,8 hPa 0,2 l/m 0 min 0 min 0 W/m 0,0 km/h (0 Bft) 100,00 %
11.12.2017 18:46 1,3 C 1,1 C 0,0 C 98 % 15 lf 975,9 hPa 0,0 l/m 0 min 0 min 0 W/m 6,8 km/h (2 Bft) 98,21 %
11.12.2017 18:48 1,3 C 1,1 C 0,0 C 98 % 15 lf 975,8 hPa 0,0 l/m 0 min 0 min 0 W/m 4,5 km/h (1 Bft) 92,11 %
11.12.2017 18:50 1,3 C 1,1 C 0,0 C 98 % 15 lf 975,8 hPa 0,0 l/m 0 min 0 min 0 W/m 0,0 km/h (0 Bft) 95,74 %
11.12.2017 18:52 1,3 C 1,1 C 0,0 C 98 % 15 lf 976,0 hPa 0,0 l/m 0 min 0 min 0 W/m 0,0 km/h (0 Bft) 95,74 %
11.12.2017 18:54 1,3 C 1,1 C 0,0 C 98 % 15 lf 976,0 hPa 0,0 l/m 0 min 0 min 0 W/m 4,5 km/h (1 Bft) 95,65 %
11.12.2017 18:56 1,3 C 1,1 C 0,0 C 98 % 15 lf 976,2 hPa 0,0 l/m 0 min 0 min 0 W/m 2,3 km/h (1 Bft) 95,74 %
11.12.2017 18:58 1,3 C 1,1 C 0,0 C 98 % 15 lf 976,2 hPa 0,0 l/m 0 min 0 min 0 W/m 2,3 km/h (1 Bft) 96,43 %
11.12.2017 19:00 1,3 C 1,1 C 0,0 C 98 % 15 lf 976,1 hPa 0,0 l/m 0 min 0 min 0 W/m 0,0 km/h (0 Bft) 92,11 %
11.12.2017 19:02 1,3 C 1,1 C 0,0 C 98 % 15 lf 976,2 hPa 0,0 l/m 0 min 0 min 0 W/m 2,3 km/h (1 Bft) 95,74 %
11.12.2017 19:04 1,3 C 1,1 C 0,0 C 98 % 15 lf 976,2 hPa 0,0 l/m 0 min 0 min 0 W/m 2,3 km/h (1 Bft) 93,62 %
11.12.2017 19:06 1,3 C 1,1 C 0,0 C 98 % 15 lf 976,2 hPa 0,0 l/m 0 min 0 min 0 W/m 2,3 km/h (1 Bft) 96,36 %
11.12.2017 19:08 1,3 C 1,1 C 0,0 C 98 % 15 lf 976,3 hPa 0,0 l/m 0 min 0 min 0 W/m 0,0 km/h (0 Bft) 94,74 %
11.12.2017 19:10 1,3 C 1,1 C 0,0 C 98 % 15 lf 976,3 hPa 0,0 l/m 0 min 0 min 0 W/m 4,5 km/h (1 Bft) 95,74 %
11.12.2017 19:12 1,3 C 1,1 C 0,0 C 98 % 15 lf 976,3 hPa 0,0 l/m 0 min 0 min 0 W/m 4,5 km/h (1 Bft) 89,36 %
11.12.2017 19:14 1,3 C 1,1 C 0,0 C 98 % 15 lf 976,3 hPa 0,0 l/m 0 min 0 min 0 W/m 6,8 km/h (2 Bft) 95,74 %
11.12.2017 19:16 1,3 C 1,1 C 0,0 C 98 % 15 lf 976,3 hPa 0,0 l/m 0 min 0 min 0 W/m 6,8 km/h (2 Bft) 92,73 %
11.12.2017 19:18 1,3 C 1,1 C 0,0 C 98 % 15 lf 976,4 hPa 0,0 l/m 0 min 0 min 0 W/m 9,0 km/h (2 Bft) 92,11 %
11.12.2017 19:20 1,3 C 1,7 C 0,0 C 98 % 15 lf 976,3 hPa 0,0 l/m 0 min 0 min 0 W/m 11,3 km/h (2 Bft) 82,98 %
11.12.2017 19:22 1,3 C 2,2 C 0,0 C 98 % 15 lf 976,5 hPa 0,0 l/m 0 min 0 min 0 W/m 11,3 km/h (2 Bft) 93,62 %
11.12.2017 19:24 1,3 C 2,2 C 0,6 C 98 % 15 lf 976,5 hPa 0,0 l/m 0 min 0 min 0 W/m 11,3 km/h (2 Bft) 95,74 %
11.12.2017 19:26 1,3 C 2,8 C 0,6 C 98 % 15 lf 976,5 hPa 0,0 l/m 0 min 0 min 0 W/m 11,3 km/h (2 Bft) 93,88 %
11.12.2017 19:28 1,4 C 3,3 C 0,6 C 98 % 15 lf 976,6 hPa 0,0 l/m 0 min 0 min 0 W/m 9,0 km/h (2 Bft) 93,62 %
11.12.2017 19:30 1,5 C 3,3 C 0,6 C 98 % 15 lf 976,6 hPa 0,0 l/m 0 min 0 min 0 W/m 11,3 km/h (2 Bft) 89,36 %
11.12.2017 19:32 1,6 C 3,9 C 1,1 C 98 % 15 lf 976,6 hPa 0,0 l/m 0 min 0 min 0 W/m 13,5 km/h (3 Bft) 90,91 %
11.12.2017 19:34 1,7 C 3,9 C 1,1 C 98 % 15 lf 976,7 hPa 0,0 l/m 0 min 0 min 0 W/m 11,3 km/h (2 Bft) 96,00 %
11.12.2017 19:36 1,8 C 4,4 C 1,1 C 98 % 15 lf 976,8 hPa 0,0 l/m 0 min 0 min 0 W/m 15,8 km/h (3 Bft) 87,23 %
11.12.2017 19:38 2,1 C 4,4 C 1,7 C 98 % 15 lf 976,8 hPa 0,2 l/m 0 min 0 min 0 W/m 13,5 km/h (3 Bft) 93,62 %
11.12.2017 19:40 2,3 C 5,0 C 2,2 C 98 % 15 lf 976,8 hPa 0,0 l/m 0 min 0 min 0 W/m 22,5 km/h (4 Bft) 93,02 %
11.12.2017 19:42 2,5 C 5,0 C 2,2 C 98 % 15 lf 976,8 hPa 0,0 l/m 0 min 0 min 0 W/m 13,5 km/h (3 Bft) 94,00 %
11.12.2017 19:44 2,7 C 5,0 C 2,2 C 98 % 15 lf 976,8 hPa 0,0 l/m 0 min 0 min 0 W/m 15,8 km/h (3 Bft) 95,74 %
11.12.2017 19:46 2,9 C 5,0 C 2,2 C 98 % 15 lf 976,7 hPa 0,0 l/m 0 min 0 min 0 W/m 11,3 km/h (2 Bft) 91,49 %
11.12.2017 19:48 3,2 C 5,0 C 2,8 C 98 % 15 lf 976,7 hPa 0,0 l/m 0 min 0 min 0 W/m 9,0 km/h (2 Bft) 90,91 %
11.12.2017 19:50 3,4 C 5,0 C 2,2 C 98 % 15 lf 976,6 hPa 0,0 l/m 0 min 0 min 0 W/m 9,0 km/h (2 Bft) 93,88 %
11.12.2017 19:52 3,6 C 5,0 C 2,2 C 98 % 15 lf 976,7 hPa 0,2 l/m 0 min 0 min 0 W/m 15,8 km/h (3 Bft) 93,62 %
11.12.2017 19:54 3,7 C 5,0 C 2,2 C 99 % 15 lf 976,7 hPa 0,0 l/m 0 min 0 min 0 W/m 13,5 km/h (3 Bft) 91,49 %
11.12.2017 19:56 3,8 C 5,0 C 2,2 C 99 % 15 lf 976,7 hPa 0,0 l/m 0 min 0 min 0 W/m 13,5 km/h (3 Bft) 95,74 %
11.12.2017 19:58 4,0 C 5,6 C 2,8 C 99 % 15 lf 976,7 hPa 0,0 l/m 0 min 0 min 0 W/m 15,8 km/h (3 Bft) 93,62 %
11.12.2017 20:00 4,1 C 5,6 C 2,8 C 99 % 15 lf 976,8 hPa 0,0 l/m 0 min 0 min 0 W/m 15,8 km/h (3 Bft) 95,45 %
11.12.2017 20:02 4,3 C 5,6 C 2,8 C 99 % 15 lf 976,9 hPa 0,0 l/m 0 min 0 min 0 W/m 22,5 km/h (4 Bft) 93,88 %
11.12.2017 20:04 4,4 C 5,6 C 2,8 C 99 % 15 lf 977,0 hPa 0,0 l/m 0 min 0 min 0 W/m 15,8 km/h (3 Bft) 97,87 %
11.12.2017 20:06 4,5 C 5,6 C 2,8 C 99 % 15 lf 977,0 hPa 0,0 l/m 0 min 0 min 0 W/m 15,8 km/h (3 Bft) 97,87 %
11.12.2017 20:08 4,6 C 5,6 C 2,8 C 99 % 15 lf 977,0 hPa 0,0 l/m 0 min 0 min 0 W/m 11,3 km/h (2 Bft) 97,87 %
11.12.2017 20:10 4,7 C 5,6 C 2,8 C 99 % 15 lf 977,1 hPa 0,0 l/m 0 min 0 min 0 W/m 6,8 km/h (2 Bft) 95,74 %
11.12.2017 20:12 4,8 C 5,6 C 2,8 C 99 % 15 lf 977,2 hPa 0,2 l/m 0 min 0 min 0 W/m 18,0 km/h (3 Bft) 97,73 %
11.12.2017 20:14 4,8 C 5,6 C 3,3 C 99 % 15 lf 977,1 hPa 0,0 l/m 0 min 0 min 0 W/m 22,5 km/h (4 Bft) 95,92 %
11.12.2017 20:16 4,9 C 5,6 C 3,3 C 99 % 15 lf 977,2 hPa 0,0 l/m 0 min 0 min 0 W/m 15,8 km/h (3 Bft) 95,74 %
11.12.2017 20:18 5,0 C 5,6 C 3,3 C 99 % 15 lf 977,2 hPa 0,0 l/m 0 min 0 min 0 W/m 15,8 km/h (3 Bft) 97,87 %
11.12.2017 20:20 5,1 C 5,6 C 3,3 C 99 % 15 lf 977,2 hPa 0,0 l/m 0 min 0 min 0 W/m 15,8 km/h (3 Bft) 96,43 %
11.12.2017 20:22 5,2 C 5,6 C 3,9 C 99 % 15 lf 977,3 hPa 0,0 l/m 0 min 0 min 0 W/m 18,0 km/h (3 Bft) 97,37 %
11.12.2017 20:24 5,2 C 5,6 C 3,9 C 99 % 15 lf 977,3 hPa 0,0 l/m 0 min 0 min 0 W/m 15,8 km/h (3 Bft) 97,83 %
11.12.2017 20:26 5,2 C 5,6 C 3,9 C 99 % 15 lf 977,3 hPa 0,2 l/m 0 min 0 min 0 W/m 15,8 km/h (3 Bft) 100,00 %
11.12.2017 20:28 5,3 C 5,6 C 3,9 C 99 % 15 lf 977,3 hPa 0,0 l/m 0 min 0 min 0 W/m 15,8 km/h (3 Bft) 97,87 %
11.12.2017 20:30 5,3 C 5,6 C 3,9 C 99 % 15 lf 977,3 hPa 0,0 l/m 0 min 0 min 0 W/m 20,3 km/h (4 Bft) 95,45 %
11.12.2017 20:32 5,4 C 6,1 C 3,9 C 99 % 15 lf 977,4 hPa 0,0 l/m 0 min 0 min 0 W/m 22,5 km/h (4 Bft) 100,00 %
11.12.2017 20:34 5,4 C 5,6 C 3,9 C 99 % 15 lf 977,4 hPa 0,0 l/m 0 min 0 min 0 W/m 20,3 km/h (4 Bft) 97,87 %
11.12.2017 20:36 5,4 C 6,1 C 3,9 C 99 % 15 lf 977,5 hPa 0,0 l/m 0 min 0 min 0 W/m 18,0 km/h (3 Bft) 97,87 %
11.12.2017 20:38 5,4 C 6,1 C 3,9 C 99 % 15 lf 977,5 hPa 0,0 l/m 0 min 0 min 0 W/m 20,3 km/h (4 Bft) 97,83 %
11.12.2017 20:40 5,4 C 5,6 C 3,3 C 99 % 15 lf 977,5 hPa 0,0 l/m 0 min 0 min 0 W/m 15,8 km/h (3 Bft) 100,00 %
11.12.2017 20:42 5,5 C 5,6 C 3,9 C 99 % 15 lf 977,5 hPa 0,0 l/m 0 min 0 min 0 W/m 13,5 km/h (3 Bft) 98,00 %
11.12.2017 20:44 5,5 C 5,6 C 3,3 C 99 % 15 lf 977,6 hPa 0,2 l/m 0 min 0 min 0 W/m 11,3 km/h (2 Bft) 100,00 %
11.12.2017 20:46 5,5 C 5,6 C 3,3 C 99 % 15 lf 977,6 hPa 0,0 l/m 0 min 0 min 0 W/m 15,8 km/h (3 Bft) 87,23 %
11.12.2017 20:48 5,5 C 5,6 C 3,3 C 99 % 15 lf 977,7 hPa 0,0 l/m 0 min 0 min 0 W/m 18,0 km/h (3 Bft) 95,35 %
11.12.2017 20:50 5,5 C 5,6 C 3,3 C 99 % 15 lf 977,8 hPa 0,0 l/m 0 min 0 min 0 W/m 20,3 km/h (4 Bft) 96,00 %
11.12.2017 20:52 5,5 C 5,6 C 3,9 C 99 % 15 lf 977,8 hPa 0,0 l/m 0 min 0 min 0 W/m 15,8 km/h (3 Bft) 91,49 %
11.12.2017 20:54 5,5 C 5,6 C 3,9 C 99 % 15 lf 977,8 hPa 0,0 l/m 0 min 0 min 0 W/m 15,8 km/h (3 Bft) 95,74 %
11.12.2017 20:56 5,6 C 5,6 C 3,9 C 99 % 15 lf 977,8 hPa 0,0 l/m 0 min 0 min 0 W/m 15,8 km/h (3 Bft) 97,87 %
11.12.2017 20:58 5,6 C 6,1 C 3,9 C 99 % 15 lf 977,9 hPa 0,0 l/m 0 min 0 min 0 W/m 15,8 km/h (3 Bft) 95,74 %
11.12.2017 21:00 5,6 C 5,6 C 3,9 C 99 % 15 lf 978,0 hPa 0,0 l/m 0 min 0 min 0 W/m 9,0 km/h (2 Bft) 93,02 %
11.12.2017 21:02 5,6 C 5,6 C 3,3 C 99 % 15 lf 978,1 hPa 0,2 l/m 0 min 2 min 0 W/m 11,3 km/h (2 Bft) 95,74 %
11.12.2017 21:04 5,6 C 5,6 C 3,3 C 99 % 15 lf 978,2 hPa 0,0 l/m 0 min 2 min 0 W/m 9,0 km/h (2 Bft) 96,00 %
11.12.2017 21:06 5,6 C 5,6 C 3,3 C 99 % 15 lf 978,3 hPa 0,0 l/m 0 min 2 min 0 W/m 6,8 km/h (2 Bft) 97,87 %
11.12.2017 21:08 5,6 C 5,0 C 3,3 C 99 % 15 lf 978,4 hPa 0,0 l/m 0 min 2 min 0 W/m 15,8 km/h (3 Bft) 97,87 %
11.12.2017 21:10 5,5 C 5,0 C 3,3 C 99 % 15 lf 978,5 hPa 0,0 l/m 0 min 2 min 0 W/m 13,5 km/h (3 Bft) 97,73 %
11.12.2017 21:12 5,5 C 5,0 C 2,8 C 99 % 15 lf 978,6 hPa 0,0 l/m 0 min 2 min 0 W/m 13,5 km/h (3 Bft) 97,96 %
11.12.2017 21:14 5,4 C 5,0 C 2,8 C 99 % 15 lf 978,7 hPa 0,0 l/m 0 min 2 min 0 W/m 9,0 km/h (2 Bft) 95,74 %
11.12.2017 21:16 5,4 C 4,4 C 2,8 C 99 % 15 lf 978,7 hPa 0,0 l/m 0 min 2 min 0 W/m 9,0 km/h (2 Bft) 97,87 %
11.12.2017 21:18 5,4 C 4,4 C 2,8 C 99 % 15 lf 978,8 hPa 0,0 l/m 0 min 2 min 0 W/m 6,8 km/h (2 Bft) 100,00 %
11.12.2017 21:20 5,3 C 4,4 C 2,8 C 99 % 15 lf 978,8 hPa 0,0 l/m 0 min 2 min 0 W/m 9,0 km/h (2 Bft) 98,18 %
11.12.2017 21:22 5,2 C 4,4 C 2,2 C 99 % 15 lf 978,9 hPa 0,0 l/m 0 min 2 min 0 W/m 9,0 km/h (2 Bft) 100,00 %
11.12.2017 21:24 5,2 C 3,9 C 2,2 C 98 % 15 lf 979,0 hPa 0,2 l/m 0 min 2 min 0 W/m 6,8 km/h (2 Bft) 100,00 %
11.12.2017 21:26 5,1 C 3,9 C 2,2 C 98 % 15 lf 979,0 hPa 0,0 l/m 0 min 2 min 0 W/m 4,5 km/h (1 Bft) 100,00 %
11.12.2017 21:28 5,1 C 3,9 C 2,2 C 98 % 15 lf 979,0 hPa 0,0 l/m 0 min 2 min 0 W/m 6,8 km/h (2 Bft) 97,87 %
11.12.2017 21:30 5,0 C 3,9 C 2,2 C 98 % 15 lf 979,1 hPa 0,0 l/m 0 min 2 min 0 W/m 4,5 km/h (1 Bft) 97,87 %
11.12.2017 21:32 4,9 C 3,9 C 2,2 C 98 % 15 lf 979,2 hPa 0,0 l/m 0 min 2 min 0 W/m 6,8 km/h (2 Bft) 100,00 %
11.12.2017 21:34 4,8 C 3,9 C 2,2 C 98 % 15 lf 979,2 hPa 0,0 l/m 0 min 2 min 0 W/m 6,8 km/h (2 Bft) 100,00 %
11.12.2017 21:36 4,8 C 3,9 C 2,2 C 98 % 15 lf 979,2 hPa 0,0 l/m 0 min 2 min 0 W/m 6,8 km/h (2 Bft) 100,00 %
11.12.2017 21:38 4,7 C 3,3 C 2,2 C 98 % 15 lf 979,3 hPa 0,0 l/m 0 min 2 min 0 W/m 4,5 km/h (1 Bft) 97,87 %
11.12.2017 21:40 4,7 C 3,3 C 2,2 C 98 % 15 lf 979,4 hPa 0,0 l/m 0 min 2 min 0 W/m 2,3 km/h (1 Bft) 97,73 %
11.12.2017 21:42 4,6 C 3,3 C 2,2 C 98 % 15 lf 979,6 hPa 0,2 l/m 0 min 0 min 0 W/m 4,5 km/h (1 Bft) 100,00 %
11.12.2017 21:44 4,6 C 3,3 C 2,2 C 98 % 15 lf 979,6 hPa 0,0 l/m 0 min 0 min 0 W/m 4,5 km/h (1 Bft) 100,00 %
11.12.2017 21:46 4,5 C 3,3 C 2,2 C 98 % 15 lf 979,6 hPa 0,0 l/m 0 min 0 min 0 W/m 6,8 km/h (2 Bft) 95,74 %
11.12.2017 21:48 4,4 C 3,3 C 1,7 C 98 % 15 lf 979,6 hPa 0,0 l/m 0 min 0 min 0 W/m 4,5 km/h (1 Bft) 95,65 %
11.12.2017 21:50 4,4 C 3,3 C 1,7 C 98 % 15 lf 979,7 hPa 0,0 l/m 0 min 0 min 0 W/m 6,8 km/h (2 Bft) 98,21 %
11.12.2017 21:52 4,3 C 3,3 C 1,7 C 98 % 15 lf 979,7 hPa 0,0 l/m 0 min 0 min 0 W/m 6,8 km/h (2 Bft) 94,29 %
11.12.2017 21:54 4,3 C 3,3 C 1,7 C 98 % 15 lf 979,8 hPa 0,0 l/m 0 min 2 min 0 W/m 9,0 km/h (2 Bft) 100,00 %
11.12.2017 21:56 4,2 C 2,8 C 1,7 C 98 % 15 lf 979,9 hPa 0,0 l/m 0 min 2 min 0 W/m 13,5 km/h (3 Bft) 98,00 %
11.12.2017 21:58 4,1 C 2,8 C 1,7 C 98 % 15 lf 979,9 hPa 0,0 l/m 0 min 2 min 0 W/m 15,8 km/h (3 Bft) 97,87 %
11.12.2017 22:00 4,0 C 2,8 C 1,7 C 98 % 15 lf 979,9 hPa 0,0 l/m 0 min 2 min 0 W/m 11,3 km/h (2 Bft) 97,83 %
11.12.2017 22:02 3,9 C 2,8 C 1,7 C 98 % 15 lf 980,0 hPa 0,0 l/m 0 min 0 min 0 W/m 13,5 km/h (3 Bft) 97,73 %
11.12.2017 22:04 3,8 C 2,8 C 1,7 C 98 % 15 lf 980,0 hPa 0,0 l/m 0 min 0 min 0 W/m 11,3 km/h (2 Bft) 96,00 %
11.12.2017 22:06 3,7 C 2,2 C 1,1 C 98 % 15 lf 980,1 hPa 0,0 l/m 0 min 2 min 0 W/m 13,5 km/h (3 Bft) 95,74 %
11.12.2017 22:08 3,6 C 2,2 C 1,1 C 97 % 15 lf 980,1 hPa 0,0 l/m 0 min 2 min 0 W/m 9,0 km/h (2 Bft) 97,87 %
11.12.2017 22:10 3,4 C 2,2 C 1,1 C 97 % 15 lf 980,1 hPa 0,0 l/m 0 min 2 min 0 W/m 11,3 km/h (2 Bft) 95,74 %
11.12.2017 22:12 3,3 C 2,2 C 1,1 C 97 % 15 lf 980,2 hPa 0,0 l/m 0 min 2 min 0 W/m 11,3 km/h (2 Bft) 93,02 %
11.12.2017 22:14 3,3 C 2,2 C 1,1 C 97 % 15 lf 980,3 hPa 0,0 l/m 0 min 2 min 0 W/m 6,8 km/h (2 Bft) 89,36 %
11.12.2017 22:16 3,2 C 2,2 C 1,1 C 97 % 15 lf 980,3 hPa 0,0 l/m 0 min 2 min 0 W/m 6,8 km/h (2 Bft) 94,00 %
11.12.2017 22:18 3,1 C 1,7 C 1,1 C 97 % 15 lf 980,4 hPa 0,0 l/m 0 min 2 min 0 W/m 4,5 km/h (1 Bft) 95,74 %
11.12.2017 22:20 3,0 C 1,7 C 1,1 C 97 % 15 lf 980,4 hPa 0,0 l/m 0 min 2 min 0 W/m 11,3 km/h (2 Bft) 95,74 %
11.12.2017 22:22 2,9 C 1,7 C 0,6 C 97 % 15 lf 980,5 hPa 0,0 l/m 0 min 2 min 0 W/m 11,3 km/h (2 Bft) 93,62 %
11.12.2017 22:24 2,8 C 1,7 C 0,6 C 97 % 15 lf 980,5 hPa 0,2 l/m 0 min 2 min 0 W/m 11,3 km/h (2 Bft) 95,65 %
11.12.2017 22:26 2,7 C 1,7 C 0,6 C 97 % 15 lf 980,5 hPa 0,0 l/m 0 min 2 min 0 W/m 11,3 km/h (2 Bft) 93,18 %
11.12.2017 22:28 2,6 C 1,7 C 0,6 C 97 % 15 lf 980,6 hPa 0,0 l/m 0 min 2 min 0 W/m 15,8 km/h (3 Bft) 94,00 %
11.12.2017 22:30 2,5 C 1,7 C 0,6 C 97 % 15 lf 980,7 hPa 0,0 l/m 0 min 2 min 0 W/m 11,3 km/h (2 Bft) 91,49 %
11.12.2017 22:32 2,4 C 1,1 C 0,6 C 97 % 15 lf 980,7 hPa 0,0 l/m 0 min 2 min 0 W/m 15,8 km/h (3 Bft) 91,49 %
11.12.2017 22:34 2,4 C 1,1 C 0,6 C 97 % 15 lf 980,7 hPa 0,0 l/m 0 min 2 min 0 W/m 13,5 km/h (3 Bft) 97,67 %
11.12.2017 22:36 2,3 C 1,1 C 0,6 C 97 % 15 lf 980,8 hPa 0,0 l/m 0 min 2 min 0 W/m 15,8 km/h (3 Bft) 96,00 %
11.12.2017 22:38 2,2 C 1,1 C 0,0 C 97 % 15 lf 980,9 hPa 0,0 l/m 0 min 2 min 0 W/m 13,5 km/h (3 Bft) 97,87 %
11.12.2017 22:40 2,1 C 1,1 C 0,0 C 97 % 15 lf 980,9 hPa 0,0 l/m 0 min 2 min 0 W/m 18,0 km/h (3 Bft) 93,62 %
11.12.2017 22:42 2,1 C 1,1 C 0,0 C 97 % 15 lf 981,0 hPa 0,0 l/m 0 min 2 min 0 W/m 13,5 km/h (3 Bft) 93,18 %
11.12.2017 22:44 1,9 C 1,1 C 0,0 C 97 % 15 lf 981,1 hPa 0,0 l/m 0 min 2 min 0 W/m 13,5 km/h (3 Bft) 93,48 %
11.12.2017 22:46 1,9 C 1,1 C 0,0 C 97 % 15 lf 981,2 hPa 0,0 l/m 0 min 2 min 0 W/m 13,5 km/h (3 Bft) 94,00 %
11.12.2017 22:48 1,8 C 1,1 C 0,0 C 97 % 15 lf 981,3 hPa 0,0 l/m 0 min 2 min 0 W/m 11,3 km/h (2 Bft) 93,62 %
11.12.2017 22:50 1,8 C 1,1 C 0,0 C 97 % 15 lf 981,4 hPa 0,0 l/m 0 min 2 min 0 W/m 11,3 km/h (2 Bft) 95,74 %
11.12.2017 22:52 1,7 C 1,1 C 0,0 C 97 % 15 lf 981,4 hPa 0,0 l/m 0 min 2 min 0 W/m 6,8 km/h (2 Bft) 91,49 %
11.12.2017 22:54 1,7 C 1,1 C 0,0 C 97 % 15 lf 981,4 hPa 0,0 l/m 0 min 2 min 0 W/m 6,8 km/h (2 Bft) 95,74 %
11.12.2017 22:56 1,6 C 1,1 C 0,0 C 97 % 15 lf 981,4 hPa 0,0 l/m 0 min 2 min 0 W/m 13,5 km/h (3 Bft) 97,67 %
11.12.2017 22:58 1,6 C 1,1 C 0,0 C 97 % 15 lf 981,5 hPa 0,0 l/m 0 min 0 min 0 W/m 11,3 km/h (2 Bft) 96,00 %
11.12.2017 23:00 1,5 C 1,1 C 0,0 C 97 % 15 lf 981,5 hPa 0,0 l/m 0 min 2 min 0 W/m 13,5 km/h (3 Bft) 97,87 %
11.12.2017 23:02 1,5 C 0,6 C 0,0 C 97 % 15 lf 981,5 hPa 0,0 l/m 0 min 2 min 0 W/m 13,5 km/h (3 Bft) 93,62 %
11.12.2017 23:04 1,4 C 0,6 C 0,0 C 97 % 15 lf 981,5 hPa 0,0 l/m 0 min 2 min 0 W/m 11,3 km/h (2 Bft) 95,45 %
11.12.2017 23:06 1,4 C 0,6 C 0,0 C 97 % 15 lf 981,6 hPa 0,0 l/m 0 min 2 min 0 W/m 18,0 km/h (3 Bft) 94,00 %
11.12.2017 23:08 1,3 C 0,6 C 0,0 C 96 % 15 lf 981,6 hPa 0,0 l/m 0 min 0 min 0 W/m 13,5 km/h (3 Bft) 97,87 %
11.12.2017 23:10 1,3 C 0,6 C 0,0 C 97 % 15 lf 981,6 hPa 0,0 l/m 0 min 0 min 0 W/m 13,5 km/h (3 Bft) 97,83 %
11.12.2017 23:12 1,3 C 0,6 C 0,0 C 97 % 15 lf 981,7 hPa 0,0 l/m 0 min 2 min 0 W/m 11,3 km/h (2 Bft) 97,87 %
11.12.2017 23:14 1,2 C 0,6 C 0,0 C 97 % 15 lf 981,8 hPa 0,2 l/m 0 min 2 min 0 W/m 13,5 km/h (3 Bft) 91,49 %
11.12.2017 23:16 1,2 C 0,6 C 0,0 C 97 % 15 lf 981,8 hPa 0,0 l/m 0 min 2 min 0 W/m 11,3 km/h (2 Bft) 93,18 %
11.12.2017 23:18 1,1 C 0,6 C 0,0 C 97 % 15 lf 981,8 hPa 0,0 l/m 0 min 2 min 0 W/m 11,3 km/h (2 Bft) 97,96 %
11.12.2017 23:20 1,1 C 0,6 C 0,0 C 97 % 15 lf 981,9 hPa 0,0 l/m 0 min 2 min 0 W/m 13,5 km/h (3 Bft) 95,83 %
11.12.2017 23:22 1,1 C 0,6 C 0,0 C 97 % 15 lf 982,0 hPa 0,0 l/m 0 min 2 min 0 W/m 11,3 km/h (2 Bft) 97,83 %
11.12.2017 23:24 1,0 C 0,6 C 0,0 C 97 % 15 lf 982,1 hPa 0,0 l/m 0 min 2 min 0 W/m 15,8 km/h (3 Bft) 97,87 %
11.12.2017 23:26 1,0 C 0,6 C 0,0 C 97 % 15 lf 982,2 hPa 0,0 l/m 0 min 2 min 0 W/m 11,3 km/h (2 Bft) 97,87 %
11.12.2017 23:28 1,0 C 0,6 C -0,6 C 96 % 15 lf 982,3 hPa 0,0 l/m 0 min 2 min 0 W/m 15,8 km/h (3 Bft) 95,45 %
11.12.2017 23:30 0,9 C 0,6 C -0,6 C 96 % 15 lf 982,3 hPa 0,0 l/m 0 min 2 min 0 W/m 13,5 km/h (3 Bft) 98,00 %
11.12.2017 23:32 0,9 C 0,6 C -0,6 C 96 % 15 lf 982,3 hPa 0,0 l/m 0 min 2 min 0 W/m 13,5 km/h (3 Bft) 97,87 %
11.12.2017 23:34 0,9 C 0,6 C -0,6 C 96 % 15 lf 982,4 hPa 0,0 l/m 0 min 2 min 0 W/m 13,5 km/h (3 Bft) 97,83 %
11.12.2017 23:36 0,9 C 0,6 C -0,6 C 96 % 15 lf 982,4 hPa 0,0 l/m 0 min 2 min 0 W/m 20,3 km/h (4 Bft) 97,73 %
11.12.2017 23:38 0,9 C 0,6 C -0,6 C 96 % 15 lf 982,5 hPa 0,2 l/m 0 min 2 min 0 W/m 15,8 km/h (3 Bft) 98,00 %
11.12.2017 23:40 0,8 C 0,6 C -0,6 C 96 % 15 lf 982,4 hPa 0,0 l/m 0 min 0 min 0 W/m 18,0 km/h (3 Bft) 95,74 %
11.12.2017 23:42 0,8 C 0,6 C -0,6 C 97 % 15 lf 982,6 hPa 0,0 l/m 0 min 0 min 0 W/m 13,5 km/h (3 Bft) 93,62 %
11.12.2017 23:44 0,8 C 0,6 C -0,6 C 97 % 15 lf 982,7 hPa 0,0 l/m 0 min 0 min 0 W/m 11,3 km/h (2 Bft) 97,67 %
11.12.2017 23:46 0,8 C 0,6 C -0,6 C 97 % 15 lf 982,7 hPa 0,0 l/m 0 min 0 min 0 W/m 13,5 km/h (3 Bft) 94,00 %
11.12.2017 23:48 0,8 C 0,6 C -0,6 C 97 % 15 lf 982,7 hPa 0,0 l/m 0 min 2 min 0 W/m 13,5 km/h (3 Bft) 97,87 %
11.12.2017 23:50 0,8 C 0,6 C -0,6 C 97 % 15 lf 982,8 hPa 0,0 l/m 0 min 0 min 0 W/m 11,3 km/h (2 Bft) 95,74 %
11.12.2017 23:52 0,7 C 0,6 C -0,6 C 97 % 15 lf 982,9 hPa 0,0 l/m 0 min 0 min 0 W/m 15,8 km/h (3 Bft) 91,49 %
11.12.2017 23:54 0,7 C 0,6 C -0,6 C 96 % 15 lf 983,0 hPa 0,0 l/m 0 min 0 min 0 W/m 18,0 km/h (3 Bft) 97,87 %
11.12.2017 23:56 0,7 C 0,6 C -0,6 C 96 % 15 lf 983,0 hPa 0,0 l/m 0 min 0 min 0 W/m 15,8 km/h (3 Bft) 95,35 %
11.12.2017 23:58 0,7 C 0,6 C -0,6 C 96 % 15 lf 983,0 hPa 0,0 l/m 0 min 0 min 0 W/m 15,8 km/h (3 Bft) 94,00 %
_ Min-Zeit 06:24 05:34 02:38 00:00 00:00 16:02 - - - - 02:16 19:20
Minimum _ 0,2 C 0,0 C -1,1 C 91 % 0 lf 974,7 hPa - - - - 0,0 km/h (0 Bft) 82,98 %
_ Max-Zeit 20:56 20:32 20:22 19:54 09:44 04:04 10:14 00:00 12:10 12:36 13:18 00:36
Maximum _ 5,6 C 6,1 C 3,9 C 99 % 15 lf 984,8 hPa 0,2 l/m 0 min 4 min 43 W/m 49,6 km/h
O (6 Bft)
100,00 %
Durchschnitt _ 1,5 C 1,4 C 0,1 C 96 % 9 lf 979,7 hPa #9,4 l/m #0 min. #6:00 h 16 W/m 15,2 km/h (3 Bft) 96,14 %
© 2017 W. Hausmann